DL3NDS-WX Weather Reports


time (UTC)temp
C
wind
direction
speed
KPH
gust
KPH
rain 1hr
cm
rain 24hr
cm
rain mn
cm
humidity
%
barometer
mb
20260507082056 10 231 8.0 20.9 0.00 0.46 0.05 90 1012.1
20260507081954 10 247 11.3 20.9 0.00 0.46 0.05 90 1012.1
20260507081852 10 201 11.3 20.9 0.00 0.46 0.05 90 1012.0
20260507081751 10 266 9.7 20.9 0.00 0.46 0.05 90 1012.0
20260507081650 10 221 8.0 20.9 0.00 0.46 0.05 90 1012.1
20260507081549 10 203 9.7 20.9 0.00 0.46 0.05 90 1012.0
20260507081448 10 216 12.9 20.9 0.00 0.46 0.05 90 1012.1
20260507081346 10 200 9.7 20.9 0.00 0.46 0.05 90 1012.0
20260507081245 10 237 6.4 17.7 0.00 0.46 0.05 91 1012.1
20260507081144 10 245 6.4 16.1 0.00 0.46 0.05 91 1012.1
20260507081041 10 216 8.0 16.1 0.00 0.46 0.05 91 1012.1
20260507080940 10 203 8.0 16.1 0.00 0.46 0.05 91 1012.1
20260507080839 10 236 6.4 17.7 0.00 0.46 0.05 91 1012.1
20260507080738 10 199 6.4 17.7 0.00 0.46 0.05 91 1012.1
20260507080637 10 200 8.0 17.7 0.00 0.46 0.05 91 1012.0
20260507080535 10 253 8.0 17.7 0.00 0.46 0.05 91 1012.1
20260507080434 10 241 9.7 17.7 0.00 0.46 0.05 91 1012.0
20260507080333 10 216 9.7 17.7 0.00 0.46 0.05 91 1012.1
20260507080232 10 206 8.0 17.7 0.00 0.46 0.05 91 1012.0
20260507080130 10 211 8.0 17.7 0.00 0.46 0.05 91 1011.9
20260507080029 10 206 9.7 17.7 0.00 0.46 0.05 91 1012.0
20260507075929 10 254 8.0 17.7 0.00 0.46 0.05 91 1012.0
20260507075831 10 237 6.4 16.1 0.00 0.46 0.05 92 1011.9
20260507075725 10 256 4.8 16.1 0.00 0.46 0.05 92 1011.9
20260507075624 10 192 3.2 16.1 0.00 0.46 0.05 92 1011.9
20260507075523 10 216 8.0 16.1 0.00 0.46 0.05 91 1011.8
20260507075422 10 224 9.7 16.1 0.00 0.46 0.05 92 1012.0
20260507075320 10 206 8.0 14.5 0.00 0.46 0.05 92 1011.9
20260507075219 10 261 4.8 12.9 0.00 0.46 0.05 92 1011.9
20260507075118 10 234 4.8 12.9 0.00 0.46 0.05 92 1011.9
20260507075016 10 216 6.4 12.9 0.00 0.46 0.05 92 1011.9
20260507074917 10 276 8.0 12.9 0.00 0.46 0.05 92 1012.0
20260507074814 10 211 6.4 12.9 0.00 0.46 0.05 92 1011.9
20260507074712 10 206 4.8 12.9 0.00 0.46 0.05 92 1011.9
20260507074617 10 237 3.2 12.9 0.00 0.46 0.05 92 1011.9
20260507074540 10 211 4.8 12.9 0.00 0.46 0.05 92 1011.8
20260507074511 10 211 6.4 12.9 0.00 0.46 0.05 92 1011.9
20260507074303 10 211 6.4 12.9 0.00 0.46 0.05 92 1011.9
20260507074202 10 172 6.4 17.7 0.00 0.46 0.05 92 1011.9
20260507074103 10 222 6.4 17.7 0.00 0.46 0.05 92 1011.8
20260507074002 10 223 6.4 17.7 0.00 0.46 0.05 92 1011.8
20260507073901 10 245 6.4 17.7 0.00 0.46 0.05 92 1011.8
20260507073756 10 245 4.8 17.7 0.00 0.46 0.05 92 1011.9
20260507073657 10 187 6.4 17.7 0.00 0.46 0.05 92 1011.8
20260507073557 10 154 8.0 17.7 0.00 0.46 0.05 92 1011.8
20260507073456 10 211 9.7 17.7 0.00 0.46 0.05 92 1011.8
20260507073351 10 211 11.3 17.7 0.00 0.46 0.05 92 1011.8
20260507073254 10 211 8.0 17.7 0.00 0.46 0.05 92 1011.8
20260507073148 10 233 6.4 16.1 0.00 0.46 0.05 92 1011.8
20260507073104 10 211 6.4 14.5 0.00 0.46 0.05 92 1011.8
20260507073030 10 226 6.4 12.9 0.00 0.46 0.05 92 1011.8
20260507072848 10 199 6.4 11.3 0.00 0.46 0.05 92 1011.8
20260507072743 10 186 3.2 11.3 0.00 0.46 0.05 92 1011.8
20260507072645 10 211 4.8 11.3 0.00 0.46 0.05 92 1011.7
20260507072600 10 216 6.4 14.5 0.00 0.46 0.05 92 1011.7
20260507072527 10 235 6.4 14.5 0.00 0.46 0.05 92 1011.8
20260507072343 10 203 6.4 14.5 0.00 0.46 0.05 92 1011.7
20260507072241 10 262 6.4 14.5 0.00 0.46 0.05 92 1011.8
20260507072135 10 255 4.8 14.5 0.00 0.46 0.05 92 1011.7
20260507072034 10 191 4.8 14.5 0.00 0.46 0.05 92 1011.7
20260507071937 9 166 3.2 16.1 0.00 0.46 0.05 92 1011.6
20260507071836 9 206 3.2 16.1 0.00 0.46 0.05 92 1011.7
20260507071735 9 199 6.4 16.1 0.00 0.46 0.05 92 1011.7
20260507071632 9 155 6.4 16.1 0.00 0.46 0.05 92 1011.6
20260507071532 9 199 3.2 16.1 0.00 0.46 0.05 92 1011.6
20260507071431 9 159 4.8 16.1 0.00 0.46 0.05 92 1011.6
20260507071324 9 225 6.4 16.1 0.00 0.46 0.05 92 1011.6
20260507071223 9 229 8.0 16.1 0.00 0.46 0.05 92 1011.6
20260507071122 9 181 6.4 16.1 0.00 0.46 0.05 92 1011.7
20260507071021 9 202 4.8 16.1 0.00 0.46 0.05 92 1011.6
20260507070920 9 163 6.4 16.1 0.00 0.46 0.05 92 1011.6
20260507070818 9 187 8.0 16.1 0.00 0.46 0.05 92 1011.7
20260507070717 9 216 8.0 16.1 0.00 0.46 0.05 92 1011.6
20260507070620 9 234 9.7 16.1 0.00 0.46 0.05 92 1011.6
20260507070515 9 176 8.0 16.1 0.00 0.46 0.05 92 1011.6
20260507070412 9 225 6.4 16.1 0.00 0.46 0.05 92 1011.7
20260507070315 9 216 6.4 16.1 0.00 0.46 0.05 92 1011.6
20260507070211 9 185 6.4 16.1 0.00 0.46 0.05 92 1011.6
20260507070121 9 167 6.4 16.1 0.00 0.46 0.05 92 1011.7
20260507070011 9 211 8.0 16.1 0.00 0.46 0.05 92 1011.7
20260507065907 9 201 6.4 16.1 0.00 0.46 0.05 92 1011.6
20260507065806 9 230 6.4 16.1 0.00 0.46 0.05 92 1011.6
20260507065708 9 197 4.8 16.1 0.00 0.46 0.05 92 1011.6
20260507065607 9 201 4.8 16.1 0.00 0.46 0.05 92 1011.6
20260507065502 9 203 3.2 12.9 0.00 0.46 0.05 92 1011.6
20260507065402 9 220 6.4 12.9 0.00 0.46 0.05 92 1011.6
20260507065305 9 257 6.4 12.9 0.00 0.46 0.05 92 1011.6
20260507065201 9 241 6.4 14.5 0.00 0.46 0.05 92 1011.6
20260507065100 9 203 3.2 14.5 0.00 0.46 0.05 92 1011.6
20260507064957 9 239 3.2 14.5 0.00 0.46 0.05 92 1011.6
20260507064900 9 216 3.2 16.1 0.00 0.46 0.05 92 1011.5
20260507064752 9 247 3.2 16.1 0.00 0.46 0.05 92 1011.5
20260507064654 9 216 4.8 16.1 0.00 0.46 0.05 92 1011.6
20260507064554 9 216 6.4 16.1 0.00 0.46 0.05 92 1011.5
20260507064449 9 192 6.4 17.7 0.00 0.46 0.05 91 1011.6
20260507064250 9 200 6.4 17.7 0.00 0.46 0.05 91 1011.5
20260507064147 9 216 9.7 17.7 0.00 0.46 0.05 91 1011.5
20260507064042 9 191 9.7 17.7 0.00 0.46 0.05 91 1011.5
20260507063940 9 211 6.4 17.7 0.00 0.46 0.05 91 1011.5
20260507063839 9 222 6.4 17.7 0.00 0.46 0.05 91 1011.5
20260507063738 9 196 9.7 17.7 0.00 0.46 0.05 91 1011.4
20260507063637 9 188 9.7 17.7 0.00 0.46 0.05 91 1011.5
20260507063537 9 216 6.4 17.7 0.00 0.46 0.05 91 1011.5
20260507063434 9 242 6.4 16.1 0.00 0.46 0.05 91 1011.4
20260507063332 9 216 6.4 16.1 0.00 0.46 0.05 91 1011.5
20260507063231 9 206 8.0 16.1 0.00 0.46 0.05 91 1011.5
20260507063130 9 180 6.4 16.1 0.00 0.46 0.05 91 1011.4
20260507063028 9 216 6.4 16.1 0.00 0.46 0.05 91 1011.4
20260507062927 9 224 6.4 16.1 0.00 0.46 0.05 91 1011.5
20260507062826 9 206 8.0 16.1 0.00 0.46 0.05 91 1011.4
20260507062725 9 173 9.7 16.1 0.00 0.46 0.05 91 1011.4
20260507062624 9 206 6.4 16.1 0.00 0.46 0.05 91 1011.3
20260507062522 9 173 4.8 16.1 0.00 0.46 0.05 90 1011.4
20260507062421 9 216 4.8 16.1 0.00 0.46 0.05 90 1011.4
20260507062320 9 206 6.4 16.1 0.00 0.46 0.05 90 1011.3
20260507062219 9 198 6.4 16.1 0.00 0.46 0.05 90 1011.3
20260507062117 9 220 9.7 17.7 0.00 0.46 0.05 90 1011.4
20260507062016 9 199 9.7 17.7 0.00 0.46 0.05 90 1011.3
20260507061914 9 193 8.0 17.7 0.00 0.46 0.05 90 1011.3
20260507061813 9 193 8.0 17.7 0.00 0.46 0.05 90 1011.3
20260507061713 9 211 6.4 17.7 0.00 0.46 0.05 90 1011.4
20260507061610 9 200 6.4 17.7 0.00 0.46 0.05 90 1011.2
20260507061515 9 245 8.0 17.7 0.00 0.46 0.05 90 1011.2
20260507061408 9 163 8.0 17.7 0.00 0.46 0.05 90 1011.2
20260507061309 9 184 9.7 19.3 0.00 0.46 0.05 90 1011.2
20260507061206 9 233 9.7 19.3 0.00 0.46 0.05 90 1011.3
20260507061105 9 243 9.7 19.3 0.00 0.46 0.05 90 1011.2
20260507061004 9 191 8.0 19.3 0.00 0.46 0.05 90 1011.2
20260507060902 9 216 8.0 19.3 0.00 0.46 0.05 91 1011.2
20260507060802 9 234 6.4 19.3 0.00 0.46 0.05 91 1011.2
20260507060659 9 237 3.2 19.3 0.00 0.46 0.05 91 1011.2
20260507060556 9 228 6.4 19.3 0.00 0.46 0.05 91 1011.2
20260507060502 9 203 12.9 19.3 0.00 0.46 0.05 91 1011.2
20260507060354 9 211 12.9 19.3 0.00 0.46 0.05 91 1011.0
20260507060256 9 226 11.3 19.3 0.00 0.46 0.05 91 1011.2
20260507060152 9 203 11.3 20.9 0.00 0.46 0.05 91 1011.1
20260507060057 9 211 8.0 20.9 0.00 0.46 0.05 91 1011.1
20260507055949 9 202 8.0 20.9 0.00 0.46 0.05 91 1011.1
20260507055753 9 226 8.0 20.9 0.00 0.46 0.05 91 1011.0
20260507055645 9 250 8.0 20.9 0.00 0.46 0.05 91 1011.0
20260507055558 9 203 8.0 20.9 0.00 0.46 0.05 91 1010.9
20260507055522 9 224 8.0 20.9 0.00 0.46 0.05 91 1010.9
20260507055446 9 202 9.7 20.9 0.00 0.46 0.05 91 1010.9
20260507055240 9 229 6.4 20.9 0.00 0.46 0.05 91 1010.8
20260507055140 9 200 6.4 17.7 0.00 0.46 0.05 92 1010.9
20260507055039 9 211 4.8 17.7 0.00 0.46 0.05 92 1010.8
20260507054937 9 238 6.4 16.1 0.00 0.46 0.05 92 1010.8
20260507054735 9 245 6.4 16.1 0.00 0.46 0.05 92 1010.8
20260507054635 9 216 6.4 16.1 0.00 0.46 0.05 92 1010.8
20260507054531 9 235 4.8 16.1 0.00 0.46 0.05 92 1010.8
20260507054429 9 201 6.4 16.1 0.00 0.46 0.05 92 1010.7
20260507054328 9 206 6.4 16.1 0.00 0.46 0.05 92 1010.8
20260507054226 9 172 6.4 16.1 0.00 0.46 0.05 92 1010.7
20260507054125 9 233 6.4 16.1 0.00 0.46 0.05 92 1010.7
20260507054024 9 226 4.8 16.1 0.00 0.46 0.05 92 1010.7
20260507053923 8 264 3.2 16.1 0.00 0.46 0.05 92 1010.7
20260507053821 8 191 4.8 16.1 0.00 0.46 0.05 92 1010.7
20260507053720 8 211 8.0 16.1 0.00 0.46 0.05 92 1010.6
20260507053619 8 229 9.7 16.1 0.00 0.46 0.05 92 1010.7
20260507053519 8 206 9.7 16.1 0.00 0.46 0.05 92 1010.7
20260507053416 8 231 6.4 16.1 0.00 0.46 0.05 92 1010.7
20260507053315 8 216 4.8 16.1 0.00 0.46 0.05 92 1010.7
20260507053213 8 211 4.8 16.1 0.00 0.46 0.05 92 1010.6
20260507053112 8 216 6.4 16.1 0.00 0.46 0.05 92 1010.6
20260507053011 8 284 6.4 16.1 0.00 0.46 0.05 92 1010.6
20260507052909 8 211 6.4 16.1 0.00 0.46 0.05 92 1010.6
20260507052808 8 234 8.0 16.1 0.00 0.46 0.05 92 1010.6
20260507052707 8 254 8.0 16.1 0.03 0.46 0.05 92 1010.6
20260507052606 8 241 9.7 16.1 0.03 0.46 0.05 92 1010.6
20260507052505 8 233 8.0 16.1 0.03 0.46 0.05 92 1010.6
20260507052403 8 251 9.7 16.1 0.03 0.46 0.05 92 1010.6
20260507052305 8 246 9.7 16.1 0.03 0.46 0.05 92 1010.6
20260507052200 8 211 6.4 16.1 0.03 0.46 0.05 92 1010.6
20260507052058 8 216 4.8 17.7 0.03 0.46 0.05 92 1010.6
20260507051957 8 228 4.8 17.7 0.03 0.46 0.05 92 1010.6
20260507051856 8 230 4.8 17.7 0.03 0.46 0.05 92 1010.6
20260507051755 8 220 6.4 17.7 0.03 0.46 0.05 92 1010.6
20260507051654 8 246 6.4 17.7 0.03 0.46 0.05 92 1010.6
20260507051552 8 206 6.4 17.7 0.03 0.46 0.05 92 1010.5
20260507051451 8 220 9.7 17.7 0.03 0.46 0.05 92 1010.5
20260507051350 8 220 9.7 17.7 0.03 0.46 0.05 91 1010.6
20260507051249 8 226 4.8 17.7 0.03 0.46 0.05 92 1010.6
20260507051146 8 216 3.2 17.7 0.03 0.46 0.05 92 1010.6
20260507051046 8 200 4.8 16.1 0.03 0.46 0.05 92 1010.5
20260507050945 8 141 8.0 16.1 0.03 0.46 0.05 92 1010.6
20260507050843 8 216 8.0 16.1 0.03 0.46 0.05 92 1010.6
20260507050744 8 253 4.8 14.5 0.03 0.46 0.05 91 1010.6
20260507050640 8 216 4.8 14.5 0.03 0.46 0.05 92 1010.5
20260507050549 8 206 4.8 14.5 0.03 0.46 0.05 92 1010.5
20260507050504 8 226 3.2 17.7 0.03 0.46 0.05 92 1010.5
20260507050433 8 264 4.8 17.7 0.03 0.46 0.05 92 1010.5
20260507050241 8 237 4.8 17.7 0.03 0.46 0.05 91 1010.5
20260507050135 8 246 6.4 17.7 0.03 0.46 0.05 91 1010.5
20260507050034 8 241 9.7 17.7 0.03 0.46 0.05 91 1010.6
20260507045932 8 259 9.7 17.7 0.03 0.46 0.05 91 1010.6
20260507045831 8 249 8.0 17.7 0.03 0.46 0.05 91 1010.5
20260507045730 8 231 9.7 17.7 0.03 0.46 0.05 91 1010.5
20260507045628 8 237 11.3 17.7 0.03 0.46 0.05 91 1010.5
20260507045527 8 239 8.0 17.7 0.03 0.46 0.05 91 1010.5
20260507045425 8 278 8.0 14.5 0.03 0.46 0.05 91 1010.5
20260507045327 8 220 8.0 14.5 0.03 0.46 0.05 92 1010.4
20260507045223 8 220 3.2 14.5 0.03 0.46 0.05 92 1010.5
20260507045121 8 262 3.2 9.7 0.03 0.46 0.05 92 1010.4
20260507045020 8 246 4.8 11.3 0.03 0.46 0.05 92 1010.4
20260507044919 8 243 4.8 12.9 0.03 0.46 0.05 92 1010.4
20260507044717 8 234 6.4 16.1 0.03 0.46 0.05 92 1010.4
20260507044616 8 220 4.8 16.1 0.03 0.46 0.05 92 1010.4
20260507044525 8 206 4.8 16.1 0.03 0.46 0.05 92 1010.4
20260507044449 8 220 6.4 16.1 0.03 0.46 0.05 92 1010.4
20260507044312 8 272 6.4 16.1 0.03 0.46 0.05 92 1010.4
20260507044210 8 216 6.4 16.1 0.03 0.46 0.05 92 1010.4
20260507044108 8 241 8.0 16.1 0.03 0.46 0.05 92 1010.4
20260507044017 8 216 8.0 16.1 0.03 0.46 0.05 92 1010.4
20260507043944 8 216 6.4 16.1 0.03 0.46 0.05 92 1010.4
20260507043805 8 237 3.2 14.5 0.03 0.46 0.05 91 1010.4
20260507043704 8 176 3.2 12.9 0.03 0.46 0.05 92 1010.4
20260507043603 8 216 4.8 11.3 0.03 0.46 0.05 91 1010.4
20260507043502 8 226 4.8 11.3 0.03 0.46 0.05 91 1010.4
20260507043400 8 220 4.8 12.9 0.03 0.46 0.05 91 1010.3
20260507043257 8 231 6.4 12.9 0.03 0.46 0.05 91 1010.3
20260507043156 8 221 4.8 12.9 0.03 0.46 0.05 91 1010.3
20260507043054 8 237 3.2 12.9 0.03 0.46 0.05 91 1010.3
20260507042955 8 241 4.8 14.5 0.03 0.46 0.05 91 1010.3
20260507042853 8 216 4.8 14.5 0.03 0.46 0.05 91 1010.3
20260507042753 8 246 6.4 14.5 0.03 0.46 0.05 91 1010.2
20260507042652 8 238 6.4 14.5 0.00 0.43 0.05 91 1010.2
20260507042550 8 227 6.4 14.5 0.00 0.43 0.03 91 1010.3
20260507042448 8 245 6.4 14.5 0.00 0.43 0.03 91 1010.2
20260507042347 8 276 8.0 14.5 0.00 0.43 0.03 91 1010.2
20260507042246 8 255 9.7 14.5 0.00 0.43 0.03 91 1010.2
20260507042144 8 255 8.0 14.5 0.00 0.43 0.03 91 1010.1
20260507042044 8 228 6.4 14.5 0.00 0.43 0.03 91 1010.2
20260507041942 8 247 4.8 14.5 0.00 0.43 0.03 91 1010.1
20260507041841 8 270 6.4 17.7 0.00 0.43 0.03 91 1010.1
20260507041739 8 221 8.0 17.7 0.00 0.43 0.03 91 1010.0
20260507041639 8 258 9.7 17.7 0.00 0.43 0.03 91 1010.1
20260507041536 8 240 9.7 17.7 0.00 0.43 0.03 91 1010.1
20260507041436 8 216 8.0 17.7 0.00 0.43 0.03 91 1010.0
20260507041334 8 238 8.0 17.7 0.00 0.43 0.03 91 1010.0
20260507041233 8 293 6.4 17.7 0.00 0.43 0.03 91 1010.0
20260507041132 8 200 6.4 17.7 0.00 0.43 0.03 91 1010.0
20260507041031 8 249 9.7 17.7 0.00 0.43 0.03 91 1010.1
20260507040929 8 216 9.7 17.7 0.00 0.43 0.03 92 1010.0
20260507040828 8 260 8.0 16.1 0.00 0.43 0.03 92 1010.0
20260507040727 8 222 8.0 16.1 0.00 0.43 0.03 92 1010.0
20260507040626 8 230 6.4 16.1 0.00 0.43 0.03 92 1010.0
20260507040524 8 216 4.8 16.1 0.00 0.43 0.03 92 1010.0
20260507040422 8 229 6.4 16.1 0.00 0.43 0.03 92 1009.9
20260507040330 8 216 8.0 16.1 0.00 0.43 0.03 92 1009.9
20260507040251 8 195 8.0 16.1 0.00 0.43 0.03 92 1009.9
20260507040206 9 206 4.8 16.1 0.00 0.43 0.03 92 1009.9
20260507040020 8 264 6.4 11.3 0.00 0.43 0.03 92 1009.9
20260507035947 9 273 8.0 11.3 0.00 0.43 0.03 92 1010.0
20260507035914 9 216 8.0 12.9 0.00 0.43 0.03 92 1009.9
20260507035714 9 234 6.4 12.9 0.00 0.43 0.03 92 1009.9
20260507035613 9 206 4.8 12.9 0.00 0.43 0.03 92 1009.9
20260507035511 9 260 6.4 12.9 0.00 0.43 0.03 92 1009.9
20260507035410 9 242 6.4 12.9 0.00 0.43 0.03 92 1009.8
20260507035310 9 246 4.8 12.9 0.00 0.43 0.03 92 1009.9
20260507035207 9 233 6.4 12.9 0.00 0.43 0.03 92 1009.8
20260507035105 9 233 8.0 12.9 0.00 0.43 0.03 91 1009.9
20260507035002 9 211 8.0 14.5 0.00 0.43 0.03 91 1009.9
20260507034901 9 237 4.8 14.5 0.00 0.43 0.03 91 1009.9
20260507034700 9 234 3.2 14.5 0.00 0.46 0.03 91 1009.8
20260507034558 9 243 4.8 14.5 0.00 0.46 0.03 91 1009.9
20260507034501 9 211 6.4 14.5 0.00 0.46 0.03 91 1009.8
20260507034429 9 206 8.0 14.5 0.00 0.46 0.03 91 1009.9
20260507034250 9 240 8.0 14.5 0.00 0.46 0.03 91 1009.8
20260507034149 9 231 4.8 14.5 0.00 0.46 0.03 91 1009.8
20260507034047 9 234 1.6 11.3 0.00 0.46 0.03 91 1009.8
20260507033946 9 229 4.8 11.3 0.00 0.46 0.03 91 1009.8
20260507033843 9 233 4.8 11.3 0.00 0.46 0.03 91 1009.8
20260507033742 9 236 4.8 11.3 0.00 0.46 0.03 91 1009.8
20260507033641 9 236 4.8 11.3 0.00 0.46 0.03 91 1009.8
20260507033540 9 245 1.6 12.9 0.00 0.46 0.03 91 1009.7
20260507033439 9 245 3.2 12.9 0.00 0.46 0.03 91 1009.7
20260507033340 9 244 3.2 12.9 0.00 0.46 0.03 91 1009.7
20260507033238 9 238 3.2 12.9 0.00 0.46 0.03 91 1009.7
20260507033136 9 251 3.2 12.9 0.00 0.46 0.03 91 1009.7
20260507033035 9 230 3.2 14.5 0.00 0.46 0.03 91 1009.7
20260507032933 9 211 3.2 14.5 0.00 0.46 0.03 91 1009.6
20260507032832 9 201 4.8 14.5 0.00 0.46 0.03 91 1009.7
20260507032731 9 242 4.8 14.5 0.00 0.46 0.03 91 1009.7
20260507032629 9 231 3.2 16.1 0.00 0.46 0.03 91 1009.7
20260507032527 9 251 3.2 17.7 0.00 0.46 0.03 91 1009.7
20260507032426 9 220 4.8 17.7 0.00 0.46 0.03 91 1009.7
20260507032324 9 239 8.0 17.7 0.00 0.46 0.03 91 1009.7
20260507032222 9 241 6.4 17.7 0.00 0.46 0.03 91 1009.7
20260507032122 9 236 6.4 17.7 0.00 0.46 0.03 91 1009.7
20260507032020 9 216 8.0 17.7 0.00 0.46 0.03 91 1009.7
20260507031919 9 260 6.4 17.7 0.00 0.46 0.03 91 1009.7
20260507031818 9 236 9.7 17.7 0.00 0.46 0.03 91 1009.7
20260507031717 9 239 8.0 17.7 0.00 0.46 0.03 91 1009.7
20260507031616 9 177 4.8 14.5 0.00 0.46 0.03 91 1009.6
20260507031514 9 235 6.4 14.5 0.00 0.46 0.03 91 1009.7
20260507031412 9 268 6.4 14.5 0.00 0.46 0.03 91 1009.7
20260507031311 9 270 6.4 14.5 0.00 0.46 0.03 91 1009.7
20260507031210 9 247 6.4 14.5 0.00 0.46 0.03 91 1009.7
20260507031109 9 250 6.4 14.5 0.00 0.46 0.03 91 1009.7
20260507031002 9 216 6.4 14.5 0.00 0.46 0.03 91 1009.7
20260507030900 9 235 4.8 9.7 0.00 0.46 0.03 91 1009.7
20260507030800 9 216 1.6 9.7 0.00 0.46 0.03 92 1009.7
20260507030658 9 241 1.6 11.3 0.00 0.46 0.03 92 1009.7
20260507030558 9 246 1.6 11.3 0.00 0.46 0.03 92 1009.6
20260507030505 9 246 3.2 11.3 0.00 0.46 0.03 92 1009.6
20260507030355 9 246 3.2 11.3 0.00 0.46 0.03 92 1009.6
20260507030255 9 244 4.8 11.3 0.00 0.46 0.03 92 1009.6
20260507030152 10 260 4.8 11.3 0.00 0.46 0.03 92 1009.6
20260507030057 10 236 4.8 11.3 0.00 0.46 0.03 92 1009.6
20260507025949 10 264 4.8 11.3 0.00 0.46 0.03 92 1009.6
20260507025849 10 263 4.8 11.3 0.00 0.46 0.03 92 1009.6
20260507025646 10 240 6.4 11.3 0.00 0.46 0.03 92 1009.6
20260507025545 10 252 4.8 12.9 0.00 0.46 0.03 92 1009.6
20260507025444 10 243 4.8 12.9 0.00 0.46 0.03 92 1009.6
20260507025342 10 230 6.4 12.9 0.00 0.46 0.03 92 1009.6
20260507025241 10 270 6.4 12.9 0.00 0.46 0.03 92 1009.6
20260507025140 10 247 6.4 12.9 0.00 0.46 0.03 92 1009.6
20260507025040 10 216 6.4 12.9 0.00 0.46 0.03 92 1009.6
20260507024938 10 253 6.4 12.9 0.00 0.46 0.03 92 1009.6
20260507024837 10 228 8.0 12.9 0.00 0.46 0.03 92 1009.6
20260507024735 10 284 8.0 12.9 0.00 0.46 0.03 92 1009.6
20260507024634 10 292 6.4 12.9 0.00 0.46 0.03 92 1009.6
20260507024532 10 260 4.8 9.7 0.00 0.46 0.03 92 1009.6
20260507024431 10 286 4.8 9.7 0.00 0.46 0.03 92 1009.6
20260507024329 10 241 4.8 9.7 0.00 0.46 0.03 92 1009.6
20260507024229 10 248 3.2 11.3 0.00 0.46 0.03 92 1009.5
20260507024128 10 222 1.6 11.3 0.00 0.46 0.03 92 1009.6
20260507024025 10 264 3.2 11.3 0.00 0.46 0.03 92 1009.5
20260507023928 10 264 4.8 11.3 0.00 0.46 0.03 92 1009.6
20260507023821 10 264 4.8 11.3 0.00 0.46 0.03 92 1009.5
20260507023727 10 239 4.8 11.3 0.00 0.46 0.03 92 1009.5
20260507023651 10 237 6.4 11.3 0.00 0.46 0.03 92 1009.5
20260507023618 10 216 6.4 11.3 0.00 0.46 0.03 92 1009.5
20260507023436 10 249 8.0 11.3 0.00 0.46 0.03 92 1009.5
20260507023405 10 264 6.4 11.3 0.00 0.46 0.03 92 1009.5
20260507023215 10 269 6.4 11.3 0.00 0.46 0.03 92 1009.5
20260507023113 10 251 6.4 11.3 0.00 0.46 0.03 92 1009.5
20260507023012 10 274 6.4 11.3 0.00 0.46 0.03 92 1009.5
20260507022911 10 230 4.8 11.3 0.00 0.46 0.03 92 1009.6
20260507022810 10 253 3.2 9.7 0.00 0.46 0.03 92 1009.5
20260507022708 10 230 3.2 9.7 0.00 0.46 0.03 92 1009.6
20260507022607 10 256 3.2 9.7 0.00 0.46 0.03 92 1009.6
20260507022507 10 237 1.6 9.7 0.00 0.46 0.03 92 1009.5
20260507022430 10 225 1.6 9.7 0.00 0.46 0.03 92 1009.5
20260507022354 10 216 3.2 9.7 0.00 0.46 0.03 92 1009.6
20260507022201 10 216 4.8 9.7 0.00 0.46 0.03 92 1009.5
20260507022059 10 216 3.2 9.7 0.00 0.46 0.03 92 1009.5
20260507022000 10 216 3.2 9.7 0.00 0.46 0.03 92 1009.5
20260507021856 10 255 3.2 9.7 0.00 0.46 0.03 92 1009.5
20260507021754 10 241 3.2 9.7 0.00 0.46 0.03 92 1009.5
20260507021655 10 255 3.2 9.7 0.00 0.46 0.03 92 1009.5
20260507021548 10 247 3.2 9.7 0.00 0.46 0.03 92 1009.5
20260507021447 10 216 1.6 9.7 0.00 0.46 0.03 92 1009.5
20260507021346 10 239 3.2 14.5 0.00 0.46 0.03 92 1009.5
20260507021145 10 238 4.8 14.5 0.00 0.46 0.03 92 1009.5
20260507021044 10 245 4.8 14.5 0.00 0.46 0.03 92 1009.5
20260507020950 10 238 3.2 14.5 0.00 0.46 0.03 92 1009.5
20260507020840 10 216 3.2 14.5 0.00 0.46 0.03 92 1009.4
20260507020638 10 240 6.4 14.5 0.00 0.46 0.03 92 1009.4
20260507020531 10 226 6.4 14.5 0.00 0.46 0.03 92 1009.4
20260507020430 10 216 4.8 14.5 0.00 0.46 0.03 92 1009.4
20260507020331 10 152 3.2 14.5 0.00 0.46 0.03 92 1009.4
20260507020225 10 203 3.2 14.5 0.00 0.46 0.03 92 1009.4
20260507020124 10 216 3.2 14.5 0.00 0.46 0.03 92 1009.4
20260507020023 10 233 3.2 14.5 0.00 0.46 0.03 92 1009.4
20260507015922 10 227 6.4 14.5 0.00 0.46 0.03 92 1009.4
20260507015821 10 236 4.8 14.5 0.00 0.46 0.03 92 1009.4
20260507015719 10 216 3.2 12.9 0.00 0.46 0.03 92 1009.4
20260507015618 10 216 3.2 8.0 0.00 0.46 0.03 92 1009.4
20260507015518 10 225 4.8 8.0 0.00 0.46 0.03 92 1009.4
20260507015417 10 211 4.8 9.7 0.00 0.46 0.03 92 1009.4
20260507015314 10 245 3.2 9.7 0.00 0.46 0.03 92 1009.3
20260507015213 10 206 1.6 16.1 0.00 0.46 0.03 92 1009.4
20260507015114 10 195 3.2 16.1 0.00 0.46 0.03 92 1009.4
20260507015013 10 195 3.2 16.1 0.00 0.46 0.03 92 1009.3
20260507014912 10 216 4.8 16.1 0.00 0.46 0.03 92 1009.4
20260507014801 10 232 3.2 16.1 0.00 0.46 0.03 92 1009.3
20260507014702 10 230 3.2 16.1 0.00 0.46 0.03 92 1009.4
20260507014601 10 249 6.4 16.1 0.00 0.46 0.03 92 1009.3
20260507014501 10 258 8.0 16.1 0.00 0.46 0.03 92 1009.3
20260507014416 10 252 6.4 16.1 0.00 0.46 0.03 92 1009.4
20260507014342 10 222 4.8 16.1 0.00 0.46 0.03 92 1009.3
20260507014150 10 216 6.4 9.7 0.00 0.46 0.03 92 1009.3
20260507014050 10 231 3.2 9.7 0.00 0.46 0.03 92 1009.3
20260507013948 10 260 1.6 9.7 0.00 0.46 0.03 92 1009.3
20260507013847 10 235 3.2 9.7 0.00 0.46 0.03 92 1009.4
20260507013745 10 216 3.2 9.7 0.00 0.46 0.03 92 1009.4
20260507013645 10 258 3.2 11.3 0.00 0.46 0.03 92 1009.3
20260507013542 10 211 3.2 11.3 0.00 0.46 0.03 92 1009.4
20260507013442 10 211 4.8 11.3 0.00 0.46 0.03 92 1009.3
20260507013340 10 179 4.8 11.3 0.00 0.46 0.03 92 1009.3
20260507013250 10 221 4.8 11.3 0.00 0.46 0.03 92 1009.3
20260507013153 10 236 4.8 11.3 0.00 0.46 0.03 92 1009.3
20260507013115 10 211 6.4 11.3 0.00 0.46 0.03 92 1009.3
20260507012935 10 224 6.4 11.3 0.00 0.46 0.03 92 1009.3
20260507012905 10 211 6.4 14.5 0.00 0.46 0.03 92 1009.2
20260507012832 10 250 4.8 14.5 0.00 0.46 0.03 92 1009.3
20260507012640 10 200 3.2 14.5 0.00 0.46 0.03 92 1009.2
20260507012531 10 312 3.2 14.5 0.00 0.46 0.03 92 1009.3
20260507012429 10 211 3.2 14.5 0.00 0.46 0.03 92 1009.3
20260507012328 10 245 3.2 14.5 0.00 0.46 0.03 92 1009.2
20260507012115 10 211 4.8 14.5 0.00 0.46 0.03 92 1009.3
20260507012013 10 203 4.8 14.5 0.00 0.46 0.03 92 1009.3
20260507011913 10 255 4.8 12.9 0.00 0.46 0.03 92 1009.3
20260507011812 10 266 4.8 12.9 0.00 0.46 0.03 92 1009.2
20260507011710 10 229 4.8 12.9 0.00 0.46 0.03 92 1009.2
20260507011608 10 257 6.4 12.9 0.00 0.46 0.03 92 1009.2
20260507011509 10 216 4.8 14.5 0.00 0.46 0.03 92 1009.2
20260507011415 10 233 6.4 16.1 0.00 0.46 0.03 92 1009.2
20260507011301 10 250 6.4 16.1 0.00 0.46 0.03 92 1009.2
20260507011152 10 259 6.4 16.1 0.00 0.46 0.03 92 1009.2
20260507011050 10 225 6.4 16.1 0.00 0.46 0.03 92 1009.2
20260507010949 10 255 8.0 16.1 0.00 0.46 0.03 92 1009.2
20260507010907 10 202 8.0 16.1 0.00 0.46 0.03 92 1009.2
20260507010837 10 234 9.7 16.1 0.00 0.46 0.03 92 1009.1
20260507010647 10 223 9.7 16.1 0.00 0.46 0.03 92 1009.2
20260507010545 10 221 8.0 16.1 0.00 0.46 0.03 92 1009.2
20260507010445 10 234 6.4 16.1 0.00 0.46 0.03 92 1009.2
20260507010405 10 220 4.8 16.1 0.00 0.46 0.03 92 1009.3
20260507010332 10 203 3.2 16.1 0.00 0.46 0.03 92 1009.2
20260507010140 10 152 8.0 16.1 0.00 0.46 0.03 92 1009.2
20260507010038 10 261 9.7 16.1 0.00 0.46 0.03 92 1009.2
20260507005940 10 257 4.8 16.1 0.00 0.46 0.03 92 1009.3
20260507005902 10 216 3.2 14.5 0.00 0.46 0.03 93 1009.2
20260507005828 10 194 4.8 14.5 0.00 0.46 0.03 93 1009.2
20260507005634 10 206 3.2 14.5 0.00 0.46 0.03 93 1009.2
20260507005533 10 216 4.8 14.5 0.00 0.46 0.03 92 1009.2
20260507005434 10 249 4.8 14.5 0.00 0.46 0.03 92 1009.2
20260507005332 10 234 6.4 14.5 0.00 0.46 0.03 93 1009.3
20260507005230 10 226 6.4 14.5 0.00 0.46 0.03 92 1009.3
20260507005129 10 240 4.8 14.5 0.00 0.46 0.03 93 1009.3
20260507005027 10 172 6.4 14.5 0.00 0.46 0.03 93 1009.3
20260507004929 10 211 6.4 14.5 0.00 0.46 0.03 92 1009.2
20260507004855 10 211 4.8 9.7 0.00 0.46 0.03 92 1009.3
20260507004824 10 253 4.8 9.7 0.00 0.46 0.03 92 1009.2
20260507004623 10 262 6.4 9.7 0.00 0.46 0.03 92 1009.2
20260507004522 10 258 4.8 9.7 0.00 0.46 0.03 92 1009.2
20260507004421 10 206 4.8 12.9 0.00 0.46 0.03 92 1009.2
20260507004319 10 202 4.8 12.9 0.00 0.46 0.03 92 1009.2
20260507004220 10 242 3.2 12.9 0.00 0.46 0.03 92 1009.2
20260507004121 10 211 4.8 12.9 0.00 0.46 0.03 92 1009.1
20260507004023 10 206 4.8 12.9 0.00 0.46 0.03 92 1009.2
20260507003914 10 237 3.2 12.9 0.00 0.46 0.03 92 1009.2
20260507003812 10 253 3.2 14.5 0.00 0.46 0.03 92 1009.2
20260507003609 10 248 6.4 14.5 0.00 0.46 0.03 92 1009.1
20260507003507 10 216 4.8 14.5 0.03 0.46 0.03 92 1009.1
20260507003409 10 206 3.2 14.5 0.03 0.46 0.03 92 1009.1
20260507003307 10 206 3.2 14.5 0.03 0.46 0.03 92 1009.1
20260507003206 10 211 4.8 14.5 0.03 0.46 0.03 92 1009.1
20260507003102 10 211 6.4 14.5 0.03 0.46 0.03 92 1009.1
20260507003002 10 220 6.4 14.5 0.03 0.46 0.03 92 1009.1
20260507002900 10 260 4.8 14.5 0.03 0.46 0.03 92 1009.1
20260507002759 10 249 3.2 8.0 0.03 0.46 0.03 92 1009.2
20260507002657 10 239 1.6 8.0 0.03 0.46 0.03 92 1009.2
20260507002556 10 230 1.6 8.0 0.03 0.46 0.03 92 1009.2
20260507002454 10 250 1.6 8.0 0.03 0.46 0.03 92 1009.1
20260507002406 10 240 1.6 8.0 0.03 0.46 0.03 92 1009.1
20260507002331 10 216 3.2 8.0 0.03 0.46 0.03 92 1009.1
20260507002153 10 216 3.2 8.0 0.03 0.46 0.03 92 1009.1
20260507002048 10 216 3.2 8.0 0.03 0.46 0.03 92 1009.1
20260507001947 10 216 3.2 12.9 0.03 0.46 0.03 92 1009.1
20260507001852 10 216 3.2 12.9 0.03 0.46 0.03 92 1009.1
20260507001745 10 229 3.2 12.9 0.03 0.46 0.03 92 1009.1
20260507001644 10 220 3.2 12.9 0.03 0.46 0.03 92 1009.2
20260507001542 10 232 3.2 12.9 0.03 0.46 0.03 92 1009.2
20260507001441 10 220 3.2 12.9 0.03 0.46 0.03 92 1009.2
20260507001341 10 211 1.6 12.9 0.03 0.46 0.03 92 1009.2
20260507001240 10 182 4.8 12.9 0.03 0.46 0.03 92 1009.2
20260507001137 10 255 6.4 12.9 0.03 0.46 0.03 92 1009.2
20260507001036 10 230 4.8 12.9 0.03 0.46 0.03 92 1009.2
20260507000934 10 191 4.8 11.3 0.03 0.46 0.03 92 1009.2
20260507000833 10 231 6.4 11.3 0.03 0.46 0.03 92 1009.2
20260507000732 10 224 4.8 11.3 0.03 0.46 0.03 92 1009.2
20260507000637 10 237 6.4 11.3 0.03 0.46 0.03 92 1009.3
20260507000536 10 222 6.4 11.3 0.03 0.46 0.03 92 1009.2
20260507000428 10 216 4.8 11.3 0.03 0.46 0.03 92 1009.3
20260507000328 10 222 4.8 11.3 0.03 0.46 0.03 92 1009.2
20260507000226 10 176 4.8 11.3 0.03 0.46 0.03 92 1009.2
20260507000124 10 199 3.2 8.0 0.03 0.46 0.03 92 1009.2
20260507000023 10 211 3.2 8.0 0.03 0.46 0.03 92 1009.2
20260506235922 10 241 3.2 11.3 0.03 0.46 0.03 92 1009.2
20260506235821 10 245 3.2 11.3 0.03 0.46 0.03 92 1009.2
20260506235719 10 216 1.6 11.3 0.03 0.46 0.03 92 1009.2
20260506235619 10 216 1.6 11.3 0.03 0.46 0.03 92 1009.2
20260506235518 10 216 3.2 11.3 0.03 0.46 0.03 92 1009.2
20260506235415 10 216 3.2 11.3 0.03 0.46 0.03 92 1009.2
20260506235315 10 216 4.8 12.9 0.03 0.46 0.03 92 1009.1
20260506235212 10 216 4.8 12.9 0.03 0.46 0.03 92 1009.1
20260506235113 10 223 4.8 12.9 0.03 0.46 0.03 92 1009.2
20260506235011 10 235 4.8 12.9 0.03 0.46 0.03 92 1009.2
20260506234910 10 216 1.6 12.9 0.03 0.46 0.03 92 1009.2
20260506234808 10 211 1.6 12.9 0.03 0.46 0.03 92 1009.1
20260506234707 10 220 1.6 12.9 0.03 0.46 0.03 92 1009.2
20260506234606 10 222 6.4 12.9 0.03 0.46 0.03 92 1009.2
20260506234505 10 222 8.0 12.9 0.03 0.46 0.03 92 1009.2
20260506234404 10 252 8.0 12.9 0.03 0.46 0.03 92 1009.2
20260506234310 10 227 6.4 16.1 0.03 0.46 0.03 92 1009.2
20260506234103 10 237 6.4 16.1 0.03 0.46 0.03 92 1009.2
20260506233958 10 216 6.4 16.1 0.03 0.46 0.03 92 1009.2
20260506233906 10 220 6.4 16.1 0.03 0.46 0.03 92 1009.1
20260506233832 10 203 6.4 16.1 0.03 0.46 0.03 92 1009.2
20260506233758 10 216 8.0 16.1 0.03 0.46 0.03 92 1009.1
20260506233552 10 236 9.7 16.1 0.03 0.46 0.03 92 1009.2
20260506233451 10 223 9.7 16.1 0.00 0.43 0.03 92 1009.1
20260506233351 10 229 6.4 16.1 0.00 0.43 0.00 92 1009.1
20260506233248 10 206 8.0 16.1 0.00 0.43 0.00 92 1009.1
20260506233147 10 241 9.7 16.1 0.00 0.43 0.00 92 1009.0
20260506233045 10 216 6.4 16.1 0.00 0.43 0.00 92 1009.1
20260506232943 10 216 3.2 12.9 0.00 0.43 0.00 92 1009.1
20260506232857 10 272 4.8 12.9 0.00 0.43 0.00 92 1009.0
20260506232827 10 216 4.8 12.9 0.00 0.43 0.00 92 1009.0
20260506232640 10 216 4.8 12.9 0.00 0.43 0.00 92 1009.1
20260506232539 10 211 4.8 12.9 0.00 0.43 0.00 92 1009.1
20260506232437 10 245 4.8 12.9 0.00 0.43 0.00 92 1009.1
20260506232337 11 234 4.8 12.9 0.00 0.43 0.00 92 1009.1
20260506232235 11 235 4.8 12.9 0.00 0.43 0.00 92 1009.1
20260506232134 10 206 3.2 12.9 0.00 0.43 0.00 92 1009.1
20260506232032 10 183 3.2 12.9 0.00 0.43 0.00 92 1009.1
20260506231931 10 237 3.2 12.9 0.00 0.43 0.00 92 1009.1
20260506231828 10 252 3.2 12.9 0.00 0.43 0.00 92 1009.1
20260506231728 11 243 3.2 12.9 0.00 0.43 0.00 92 1009.1
20260506231628 11 256 4.8 12.9 0.00 0.43 0.00 92 1009.1
20260506231524 11 278 6.4 12.9 0.00 0.43 0.00 92 1009.0
20260506231425 11 216 6.4 12.9 0.00 0.43 0.00 92 1009.0
20260506231328 11 230 4.8 12.9 0.00 0.43 0.00 92 1009.0
20260506231226 11 260 4.8 12.9 0.00 0.43 0.00 92 1009.0
20260506231119 11 282 4.8 12.9 0.00 0.43 0.00 92 1009.0
20260506231020 11 238 3.2 9.7 0.00 0.43 0.00 92 1009.0
20260506230917 11 203 3.2 8.0 0.00 0.43 0.00 92 1009.0
20260506230816 11 198 3.2 8.0 0.00 0.43 0.00 92 1009.0
20260506230723 11 206 1.6 8.0 0.00 0.43 0.00 92 1009.0
20260506230613 11 206 3.2 8.0 0.00 0.43 0.00 92 1009.0
20260506230516 11 206 1.6 8.0 0.00 0.43 0.00 92 1009.0
20260506230413 11 206 0.0 8.0 0.00 0.43 0.00 92 1009.0
20260506230310 11 206 0.0 8.0 0.00 0.43 0.00 92 1008.9
20260506230210 11 206 3.2 8.0 0.00 0.43 0.00 92 1008.9
20260506225957 11 216 3.2 8.0 0.00 0.43 0.00 92 1008.9
20260506225854 11 211 1.6 8.0 0.00 0.43 0.00 92 1008.9
20260506225753 11 199 3.2 8.0 0.00 0.43 0.00 92 1008.9
20260506225553 11 211 4.8 9.7 0.00 0.43 0.00 92 1008.9
20260506225450 11 267 3.2 11.3 0.00 0.43 0.00 92 1008.8
20260506225352 11 256 0.0 11.3 0.00 0.43 0.00 92 1008.9
20260506225316 11 216 1.6 11.3 0.00 0.43 0.00 92 1008.9
20260506225246 11 216 1.6 11.3 0.00 0.43 0.00 92 1008.9
20260506225049 11 216 3.2 11.3 0.00 0.43 0.00 92 1008.8
20260506224942 11 216 4.8 11.3 0.00 0.43 0.00 93 1008.8
20260506224841 11 241 4.8 11.3 0.00 0.43 0.00 92 1008.8
20260506224739 11 237 3.2 11.3 0.00 0.43 0.00 92 1008.9
20260506224538 11 256 3.2 11.3 0.00 0.43 0.00 92 1008.7
20260506224436 11 262 3.2 8.0 0.00 0.43 0.00 92 1008.8
20260506224336 11 221 3.2 8.0 0.00 0.43 0.00 92 1008.8
20260506224228 11 278 1.6 8.0 0.00 0.43 0.00 92 1008.8
20260506224126 11 255 1.6 8.0 0.00 0.43 0.00 92 1008.9
20260506224027 11 245 3.2 6.4 0.00 0.43 0.00 92 1008.8
20260506223925 11 245 3.2 6.4 0.00 0.43 0.00 92 1008.7
20260506223824 11 206 3.2 6.4 0.00 0.43 0.00 92 1008.7
20260506223724 11 216 1.6 6.4 0.00 0.43 0.00 92 1008.8
20260506223622 11 216 0.0 6.4 0.03 0.43 0.00 92 1008.8
20260506223522 11 216 0.0 6.4 0.03 0.43 0.00 92 1008.7
20260506223414 11 216 1.6 6.4 0.03 0.43 0.00 92 1008.8
20260506223313 11 216 1.6 9.7 0.03 0.43 0.00 92 1008.8
20260506223211 11 211 3.2 9.7 0.03 0.43 0.00 92 1008.8
20260506223108 11 224 1.6 9.7 0.03 0.43 0.00 92 1008.7
20260506223010 11 245 1.6 9.7 0.03 0.43 0.00 92 1008.7
20260506222901 11 246 0.0 11.3 0.03 0.43 0.00 92 1008.7
20260506222801 11 242 0.0 11.3 0.03 0.43 0.00 92 1008.7
20260506222659 11 250 0.0 11.3 0.03 0.43 0.00 92 1008.7
20260506222558 11 250 4.8 11.3 0.03 0.43 0.00 92 1008.7
20260506222457 11 250 6.4 11.3 0.03 0.43 0.00 92 1008.6
20260506222356 11 230 3.2 11.3 0.03 0.43 0.00 92 1008.6
20260506222254 11 249 4.8 11.3 0.03 0.43 0.00 92 1008.6
20260506222150 11 263 6.4 11.3 0.03 0.43 0.00 92 1008.6
20260506222050 11 288 6.4 11.3 0.03 0.43 0.00 92 1008.6
20260506221946 11 247 6.4 11.3 0.03 0.43 0.00 92 1008.6
20260506221845 11 254 6.4 8.0 0.03 0.43 0.00 92 1008.6
20260506221748 11 264 4.8 8.0 0.03 0.43 0.00 92 1008.6
20260506221642 11 260 3.2 8.0 0.03 0.43 0.00 92 1008.6
20260506221545 11 280 4.8 8.0 0.03 0.43 0.00 92 1008.7
20260506221443 11 264 4.8 8.0 0.05 0.43 0.00 92 1008.6
20260506221342 11 250 3.2 8.0 0.05 0.43 0.00 92 1008.7
20260506221240 11 260 3.2 8.0 0.05 0.43 0.00 92 1008.7
20260506221141 11 279 3.2 8.0 0.05 0.43 0.00 92 1008.6
20260506221039 11 211 3.2 8.0 0.05 0.43 0.00 92 1008.7
20260506220938 11 237 3.2 8.0 0.05 0.43 0.00 92 1008.7
20260506220837 11 236 4.8 8.0 0.05 0.43 0.00 92 1008.6
20260506220736 11 240 3.2 8.0 0.05 0.43 0.00 92 1008.7
20260506220639 11 220 3.2 6.4 0.08 0.43 0.00 92 1008.7
20260506220533 11 199 1.6 4.8 0.08 0.43 0.00 92 1008.7
20260506220431 11 226 1.6 6.4 0.10 0.43 0.00 92 1008.6
20260506220320 11 226 0.0 6.4 0.10 0.43 0.00 92 1008.6
20260506220219 11 235 1.6 6.4 0.10 0.43 0.00 92 1008.6
20260506220118 11 235 1.6 6.4 0.13 0.43 0.00 92 1008.7
20260506220015 11 234 0.0 6.4 0.15 0.43 0.00 92 1008.6
20260506215915 11 234 1.6 6.4 0.15 0.43 0.43 92 1008.6
20260506215813 11 254 1.6 6.4 0.15 0.43 0.43 92 1008.6
20260506215711 11 244 1.6 6.4 0.15 0.43 0.43 92 1008.6
20260506215609 11 244 1.6 6.4 0.18 0.43 0.43 92 1008.6
20260506215508 11 250 0.0 6.4 0.18 0.43 0.43 92 1008.5
20260506215408 11 241 1.6 6.4 0.18 0.43 0.43 92 1008.5
20260506215312 11 243 3.2 6.4 0.20 0.43 0.43 92 1008.6
20260506215239 11 243 3.2 6.4 0.23 0.43 0.43 92 1008.6
20260506215102 11 242 3.2 6.4 0.23 0.43 0.43 92 1008.6
20260506215004 11 238 3.2 8.0 0.23 0.43 0.43 92 1008.6
20260506214902 11 279 3.2 8.0 0.23 0.43 0.43 92 1008.7
20260506214801 11 241 3.2 8.0 0.25 0.43 0.43 92 1008.6
20260506214659 11 231 3.2 8.0 0.25 0.43 0.43 92 1008.6
20260506214559 11 248 3.2 8.0 0.28 0.43 0.43 92 1008.6
20260506214456 11 220 3.2 8.0 0.28 0.43 0.43 92 1008.7
20260506214355 11 255 3.2 8.0 0.28 0.43 0.43 92 1008.7
20260506214253 11 245 3.2 8.0 0.30 0.43 0.43 92 1008.6
20260506214150 11 243 4.8 8.0 0.30 0.43 0.43 92 1008.7
20260506214051 11 237 1.6 8.0 0.30 0.43 0.43 92 1008.7
20260506213950 11 260 1.6 8.0 0.30 0.43 0.43 92 1008.7
20260506213848 11 222 3.2 8.0 0.30 0.43 0.43 92 1008.7
20260506213747 11 222 3.2 8.0 0.33 0.43 0.43 92 1008.7
20260506213646 11 255 1.6 8.0 0.30 0.43 0.43 92 1008.7
20260506213545 11 252 3.2 9.7 0.30 0.43 0.43 92 1008.7
20260506213444 11 252 4.8 9.7 0.30 0.43 0.43 92 1008.8
20260506213342 11 240 6.4 9.7 0.30 0.43 0.43 92 1008.8
20260506213240 11 258 6.4 9.7 0.30 0.43 0.43 92 1008.8
20260506213139 11 264 6.4 9.7 0.30 0.43 0.43 92 1008.8
20260506213038 11 265 3.2 9.7 0.30 0.43 0.43 92 1008.8
20260506212937 11 258 3.2 9.7 0.30 0.43 0.43 92 1008.9
20260506212835 11 255 3.2 9.7 0.30 0.43 0.43 92 1008.8
20260506212758 11 265 3.2 9.7 0.33 0.43 0.43 92 1008.8
20260506212724 11 216 6.4 9.7 0.33 0.43 0.43 92 1008.8
20260506212532 11 235 6.4 9.7 0.33 0.43 0.43 92 1008.8
20260506212431 11 264 3.2 9.7 0.33 0.43 0.43 92 1008.8
20260506212330 11 257 3.2 9.7 0.33 0.43 0.43 92 1008.8
20260506212223 11 216 4.8 11.3 0.33 0.43 0.43 92 1008.8
20260506212020 11 237 3.2 11.3 0.33 0.43 0.43 92 1008.8
20260506211919 11 222 3.2 11.3 0.33 0.43 0.43 92 1008.9
20260506211818 11 222 3.2 11.3 0.33 0.43 0.43 92 1008.8
20260506211717 11 221 3.2 11.3 0.33 0.43 0.43 92 1008.8
20260506211616 11 180 4.8 11.3 0.33 0.43 0.43 92 1008.9
20260506211514 11 227 6.4 11.3 0.33 0.41 0.43 92 1008.9
20260506211413 11 228 6.4 11.3 0.33 0.41 0.41 92 1008.9
20260506211311 11 216 6.4 11.3 0.33 0.38 0.41 91 1008.8
20260506211210 11 233 4.8 9.7 0.33 0.38 0.41 91 1008.8
20260506211011 11 257 3.2 11.3 0.33 0.38 0.38 91 1008.9
20260506210906 11 226 4.8 12.9 0.33 0.38 0.38 91 1008.9
20260506210805 11 249 6.4 12.9 0.33 0.38 0.38 91 1008.8
20260506210702 11 241 6.4 12.9 0.30 0.36 0.38 91 1008.8
20260506210600 11 222 4.8 12.9 0.30 0.36 0.36 91 1008.8
20260506210459 11 268 4.8 12.9 0.30 0.36 0.36 91 1008.7
20260506210358 11 206 6.4 16.1 0.28 0.33 0.33 91 1008.8
20260506210256 11 216 8.0 16.1 0.28 0.33 0.33 91 1008.9
20260506210155 11 253 6.4 16.1 0.28 0.33 0.33 91 1008.8
20260506210100 11 236 4.8 16.1 0.25 0.33 0.33 91 1008.8
20260506205953 11 255 4.8 16.1 0.23 0.30 0.30 91 1008.9
20260506205853 11 232 4.8 16.1 0.23 0.30 0.30 91 1008.8
20260506205751 11 242 4.8 16.1 0.23 0.28 0.28 91 1008.8
20260506205649 11 224 6.4 16.1 0.23 0.28 0.28 91 1008.8
20260506205549 11 241 6.4 16.1 0.20 0.25 0.28 91 1008.8
20260506205447 11 229 4.8 16.1 0.20 0.25 0.25 91 1008.8
20260506205346 11 216 4.8 14.5 0.18 0.23 0.25 91 1008.8
20260506205246 11 206 4.8 14.5 0.18 0.23 0.23 91 1008.8
20260506205145 11 236 6.4 17.7 0.15 0.23 0.23 91 1008.8
20260506205043 11 216 6.4 17.7 0.15 0.23 0.23 91 1008.8
20260506204936 11 256 8.0 17.7 0.15 0.20 0.23 91 1008.8
20260506204835 11 223 6.4 17.7 0.13 0.18 0.20 91 1008.9
20260506204734 11 257 8.0 17.7 0.13 0.18 0.18 91 1008.8
20260506204633 11 258 6.4 17.7 0.13 0.18 0.18 90 1008.8
20260506204531 11 226 6.4 17.7 0.10 0.15 0.18 90 1008.8
20260506204430 11 244 8.0 17.7 0.10 0.15 0.15 90 1008.7
20260506204331 11 271 6.4 17.7 0.08 0.15 0.15 90 1008.7
20260506204228 11 187 4.8 16.1 0.08 0.15 0.15 90 1008.6
20260506204127 11 203 6.4 16.1 0.08 0.15 0.15 90 1008.7
20260506204025 11 158 8.0 16.1 0.08 0.15 0.15 90 1008.7
20260506203924 11 211 9.7 16.1 0.08 0.15 0.15 90 1008.6
20260506203823 11 196 8.0 16.1 0.08 0.15 0.15 90 1008.7
20260506203721 11 197 6.4 16.1 0.05 0.13 0.15 90 1008.8
20260506203620 11 187 3.2 12.9 0.05 0.13 0.13 90 1008.6
20260506203518 11 216 3.2 6.4 0.05 0.13 0.13 90 1008.7
20260506203418 11 206 3.2 6.4 0.05 0.13 0.13 90 1008.7
20260506203317 11 211 1.6 6.4 0.05 0.13 0.13 90 1008.6
20260506203217 11 220 3.2 6.4 0.05 0.13 0.13 90 1008.6
20260506203114 11 220 3.2 6.4 0.05 0.13 0.13 90 1008.6
20260506203014 11 228 1.6 6.4 0.05 0.13 0.13 90 1008.6
20260506202911 11 241 1.6 3.2 0.05 0.13 0.13 90 1008.6
20260506202809 11 241 1.6 3.2 0.05 0.10 0.10 90 1008.7
20260506202708 11 241 0.0 3.2 0.05 0.10 0.10 90 1008.6
20260506202608 11 242 0.0 3.2 0.05 0.10 0.10 90 1008.6
20260506202508 11 242 0.0 3.2 0.05 0.10 0.10 90 1008.6
20260506202402 11 242 0.0 3.2 0.05 0.10 0.10 90 1008.7
20260506202306 11 242 0.0 4.8 0.05 0.10 0.10 90 1008.6
20260506202158 11 242 1.6 4.8 0.05 0.10 0.10 90 1008.6
20260506201956 11 242 0.0 6.4 0.05 0.10 0.10 89 1008.6
20260506201854 11 242 1.6 6.4 0.03 0.08 0.08 89 1008.6
20260506201751 11 241 1.6 6.4 0.03 0.08 0.08 89 1008.6
20260506201650 11 241 0.0 6.4 0.03 0.08 0.08 89 1008.5
20260506201546 11 237 1.6 6.4 0.03 0.08 0.08 89 1008.5
20260506201445 11 237 3.2 6.4 0.03 0.08 0.08 89 1008.5
20260506201343 11 237 3.2 6.4 0.00 0.05 0.08 89 1008.6
20260506201247 11 260 1.6 6.4 0.00 0.05 0.05 89 1008.6
20260506201146 11 228 0.0 6.4 0.00 0.05 0.05 89 1008.5
20260506201045 11 221 1.6 8.0 0.00 0.05 0.05 89 1008.5
20260506200944 11 221 1.6 8.0 0.00 0.05 0.05 89 1008.6
20260506200842 11 221 1.6 8.0 0.00 0.05 0.05 89 1008.6
20260506200740 11 216 3.2 8.0 0.00 0.05 0.05 89 1008.5
20260506200639 11 216 3.2 8.0 0.00 0.05 0.05 89 1008.5
20260506200538 11 225 1.6 8.0 0.00 0.05 0.05 89 1008.6
20260506200435 11 222 1.6 8.0 0.00 0.05 0.05 89 1008.5
20260506200335 11 206 3.2 8.0 0.00 0.05 0.05 89 1008.5
20260506200235 11 206 4.8 8.0 0.00 0.05 0.05 89 1008.5
20260506200132 11 206 3.2 8.0 0.00 0.05 0.05 89 1008.5
20260506200030 11 216 3.2 8.0 0.00 0.05 0.05 89 1008.4
20260506195931 11 216 3.2 8.0 0.00 0.05 0.05 89 1008.4
20260506195824 11 241 3.2 8.0 0.00 0.05 0.05 89 1008.4
20260506195735 11 216 3.2 8.0 0.00 0.05 0.05 89 1008.4
20260506195707 11 216 3.2 8.0 0.00 0.05 0.05 89 1008.4
20260506195519 11 227 1.6 11.3 0.00 0.05 0.05 89 1008.4
20260506195419 11 228 1.6 11.3 0.00 0.05 0.05 89 1008.2
20260506195315 11 226 3.2 11.3 0.00 0.05 0.05 89 1008.3
20260506195211 11 244 4.8 11.3 0.00 0.05 0.05 89 1008.2
20260506195110 11 222 4.8 11.3 0.00 0.05 0.05 89 1008.3
20260506195015 11 243 4.8 11.3 0.00 0.05 0.05 89 1008.3
20260506194911 11 230 3.2 11.3 0.00 0.05 0.05 89 1008.3
20260506194810 11 216 3.2 11.3 0.00 0.05 0.05 89 1008.2
20260506194709 11 222 4.8 11.3 0.00 0.05 0.05 89 1008.2
20260506194607 11 225 4.8 11.3 0.00 0.05 0.05 89 1008.2
20260506194506 11 216 4.8 8.0 0.00 0.05 0.05 89 1008.2
20260506194405 11 203 4.8 8.0 0.00 0.05 0.05 89 1008.2
20260506194304 11 211 4.8 8.0 0.00 0.05 0.05 89 1008.2
20260506194203 11 222 4.8 8.0 0.00 0.05 0.05 89 1008.1
20260506194101 11 227 1.6 8.0 0.00 0.05 0.05 89 1008.0
20260506194000 11 216 0.0 6.4 0.00 0.05 0.05 89 1008.1
20260506193859 11 285 0.0 0.0 0.00 0.05 0.05 89 1008.1
20260506193757 11 285 0.0 1.6 0.00 0.05 0.05 89 1008.1
20260506193656 11 285 0.0 1.6 0.00 0.05 0.05 89 1008.0
20260506193555 11 285 0.0 1.6 0.00 0.05 0.05 89 1008.0
20260506193447 11 285 0.0 3.2 0.00 0.05 0.05 89 1008.1
20260506193346 11 285 0.0 3.2 0.00 0.05 0.05 89 1008.1
20260506193245 11 285 0.0 3.2 0.00 0.05 0.05 89 1008.0
20260506193145 11 285 0.0 4.8 0.00 0.05 0.05 89 1008.0
20260506192944 11 285 1.6 6.4 0.00 0.05 0.05 89 1008.0
20260506192841 11 285 1.6 6.4 0.00 0.05 0.05 89 1008.0
20260506192739 11 285 0.0 6.4 0.00 0.05 0.05 89 1007.9
20260506192639 11 285 0.0 6.4 0.00 0.05 0.05 89 1007.9
20260506192441 11 285 1.6 6.4 0.00 0.05 0.05 90 1007.9
20260506192335 11 285 3.2 6.4 0.00 0.05 0.05 89 1007.9
20260506192232 11 285 3.2 6.4 0.00 0.05 0.05 90 1007.9
20260506192131 11 285 4.8 6.4 0.00 0.05 0.05 90 1007.8
20260506192032 11 287 1.6 6.4 0.00 0.05 0.05 90 1007.8
20260506191931 11 308 0.0 4.8 0.00 0.05 0.05 89 1007.8
20260506191829 11 318 0.0 3.2 0.00 0.05 0.05 89 1007.8
20260506191727 11 318 1.6 3.2 0.00 0.05 0.05 89 1007.8
20260506191628 11 318 1.6 3.2 0.00 0.05 0.05 89 1007.7
20260506191526 11 318 1.6 3.2 0.00 0.05 0.05 90 1007.7
20260506191420 11 318 1.6 3.2 0.00 0.05 0.05 90 1007.7
20260506191318 11 318 1.6 3.2 0.00 0.05 0.05 90 1007.7
20260506191212 11 318 1.6 3.2 0.00 0.05 0.05 90 1007.7
20260506191120 11 318 1.6 3.2 0.00 0.05 0.05 90 1007.7
20260506191012 11 318 0.0 3.2 0.00 0.05 0.05 89 1007.7
20260506190908 11 318 0.0 3.2 0.00 0.05 0.05 89 1007.7
20260506190807 11 318 0.0 3.2 0.00 0.05 0.05 89 1007.7
20260506190706 11 318 0.0 3.2 0.00 0.05 0.05 89 1007.7
20260506190604 11 318 0.0 6.4 0.00 0.05 0.05 89 1007.6
20260506190508 11 318 0.0 6.4 0.00 0.05 0.05 89 1007.7
20260506190408 11 318 0.0 6.4 0.00 0.05 0.05 90 1007.6
20260506190305 11 318 0.0 6.4 0.00 0.05 0.05 89 1007.6
20260506190203 11 318 0.0 6.4 0.00 0.05 0.05 89 1007.7
20260506190107 11 318 0.0 6.4 0.00 0.05 0.05 89 1007.7
20260506190000 11 318 1.6 6.4 0.00 0.05 0.05 89 1007.7
20260506185858 11 318 3.2 6.4 0.00 0.05 0.05 88 1007.7
20260506185754 11 318 3.2 6.4 0.00 0.05 0.05 89 1007.7
20260506185653 11 318 1.6 6.4 0.00 0.05 0.05 88 1007.6
20260506185549 11 295 0.0 3.2 0.00 0.05 0.05 88 1007.6
20260506185449 11 228 0.0 0.0 0.00 0.05 0.05 88 1007.6
20260506185343 12 228 0.0 0.0 0.00 0.05 0.05 88 1007.6
20260506185235 12 228 0.0 0.0 0.00 0.05 0.05 88 1007.6
20260506185134 12 228 0.0 1.6 0.00 0.05 0.05 88 1007.7
20260506184933 12 228 0.0 3.2 0.03 0.05 0.05 88 1007.6
20260506184832 12 228 0.0 4.8 0.03 0.05 0.05 88 1007.6
20260506184730 12 228 0.0 8.0 0.03 0.05 0.05 89 1007.6
20260506184629 12 228 0.0 8.0 0.03 0.05 0.05 89 1007.6
20260506184428 12 228 0.0 8.0 0.03 0.05 0.05 88 1007.5
20260506184324 12 228 0.0 8.0 0.03 0.05 0.05 89 1007.4
20260506184224 12 228 0.0 8.0 0.03 0.05 0.05 89 1007.4
20260506184121 12 228 1.6 8.0 0.03 0.05 0.05 89 1007.3
20260506184022 12 295 3.2 8.0 0.03 0.05 0.05 89 1007.3
20260506183923 12 295 4.8 8.0 0.03 0.05 0.05 89 1007.2
20260506183819 12 295 4.8 8.0 0.03 0.05 0.05 89 1007.2
20260506183728 12 290 3.2 8.0 0.03 0.05 0.05 89 1007.3
20260506183655 12 297 3.2 6.4 0.03 0.05 0.05 89 1007.3
20260506183513 12 303 1.6 3.2 0.03 0.05 0.05 89 1007.2
20260506183412 12 303 0.0 3.2 0.03 0.05 0.05 89 1007.2
20260506183311 12 303 0.0 3.2 0.03 0.05 0.05 89 1007.2
20260506183211 12 303 0.0 3.2 0.03 0.05 0.05 90 1007.3
20260506183110 12 303 1.6 3.2 0.03 0.05 0.05 90 1007.3
20260506183009 12 303 1.6 3.2 0.03 0.05 0.05 90 1007.2
20260506182909 12 303 1.6 3.2 0.03 0.08 0.05 90 1007.3
20260506182807 12 303 1.6 3.2 0.05 0.08 0.05 90 1007.2
20260506182705 12 314 3.2 3.2 0.05 0.08 0.05 90 1007.2
20260506182604 12 314 3.2 3.2 0.05 0.08 0.05 90 1007.2
20260506182502 12 314 1.6 3.2 0.05 0.08 0.05 90 1007.2
20260506182400 12 318 1.6 4.8 0.05 0.08 0.05 90 1007.1
20260506182258 12 318 0.0 6.4 0.05 0.08 0.05 90 1007.1
20260506182154 12 318 0.0 6.4 0.05 0.08 0.05 90 1007.1
20260506182055 12 318 1.6 6.4 0.05 0.08 0.05 90 1007.0
20260506181950 12 318 3.2 6.4 0.05 0.08 0.05 90 1007.1
20260506181849 12 318 3.2 6.4 0.05 0.08 0.05 90 1007.0
20260506181748 12 320 1.6 6.4 0.05 0.10 0.05 90 1007.0
20260506181647 12 325 1.6 6.4 0.05 0.10 0.05 90 1006.9
20260506181546 12 325 3.2 6.4 0.05 0.10 0.05 90 1006.9
20260506181445 12 325 3.2 6.4 0.05 0.10 0.05 89 1006.9
20260506181343 12 325 1.6 6.4 0.05 0.13 0.05 89 1007.0
20260506181245 12 320 0.0 4.8 0.05 0.13 0.05 89 1006.9
20260506181202 12 318 0.0 4.8 0.05 0.13 0.05 89 1006.9
20260506181129 12 318 0.0 4.8 0.05 0.15 0.05 90 1006.9
20260506180933 12 318 1.6 4.8 0.05 0.15 0.05 89 1007.0
20260506180830 12 318 3.2 4.8 0.05 0.15 0.05 89 1007.0
20260506180730 12 318 1.6 4.8 0.05 0.15 0.05 89 1007.1
20260506180629 12 318 1.6 4.8 0.05 0.15 0.05 89 1007.1
20260506180529 12 318 1.6 4.8 0.05 0.15 0.05 89 1007.1
20260506180427 12 318 1.6 4.8 0.05 0.15 0.05 89 1007.0
20260506180325 12 318 0.0 3.2 0.05 0.18 0.05 89 1007.0
20260506180225 12 318 0.0 4.8 0.05 0.20 0.05 89 1007.0
20260506180118 12 318 0.0 4.8 0.05 0.20 0.05 89 1007.0
20260506175911 13 318 0.0 4.8 0.05 0.23 0.05 89 1007.1
20260506175808 13 318 0.0 4.8 0.05 0.25 0.05 89 1007.1
20260506175708 13 318 0.0 4.8 0.05 0.28 0.05 89 1007.2
20260506175642 13 318 1.6 4.8 0.05 0.30 0.05 89 1007.2
20260506175506 13 318 3.2 4.8 0.05 0.33 0.05 89 1007.2
20260506175355 13 318 1.6 4.8 0.05 0.33 0.05 89 1007.3
20260506175252 13 318 0.0 4.8 0.05 0.33 0.05 89 1007.3
20260506175152 13 332 0.0 3.2 0.05 0.33 0.05 89 1007.2
20260506175050 13 332 0.0 3.2 0.03 0.36 0.05 89 1007.2
20260506174950 13 332 0.0 3.2 0.03 0.38 0.05 88 1007.1
20260506174840 13 332 0.0 3.2 0.03 0.43 0.05 88 1007.1
20260506174741 13 332 0.0 3.2 0.03 0.46 0.05 88 1007.0
20260506174640 13 332 0.0 3.2 0.03 0.51 0.05 88 1007.1
20260506174539 13 330 1.6 3.2 0.03 0.51 0.05 87 1007.0
20260506174437 13 330 0.0 3.2 0.03 0.58 0.05 87 1007.1
20260506174335 13 299 0.0 3.2 0.03 0.64 0.05 87 1007.1
20260506174233 13 268 0.0 3.2 0.03 0.64 0.05 87 1007.1
20260506174148 13 268 0.0 3.2 0.03 0.71 0.05 87 1007.1
20260506174123 13 268 1.6 3.2 0.03 0.76 0.05 86 1007.1
20260506173931 13 268 1.6 3.2 0.03 0.81 0.05 86 1007.2
20260506173829 13 264 0.0 3.2 0.03 0.84 0.05 85 1007.2
20260506173727 13 262 1.6 3.2 0.03 0.86 0.05 85 1007.2
20260506173628 13 262 0.0 3.2 0.03 0.86 0.05 84 1007.2
20260506173522 13 262 0.0 3.2 0.03 0.89 0.05 83 1007.2
20260506173421 13 262 0.0 3.2 0.03 0.89 0.05 83 1007.2
20260506173322 13 262 0.0 3.2 0.03 0.89 0.05 83 1007.2
20260506173218 13 262 0.0 4.8 0.03 0.89 0.05 82 1007.2
20260506173111 13 262 0.0 4.8 0.03 0.89 0.05 83 1007.2
20260506173012 13 260 0.0 4.8 0.03 0.89 0.05 82 1007.2
20260506172909 13 260 0.0 6.4 0.03 0.89 0.05 82 1007.3
20260506172808 13 260 0.0 6.4 0.00 0.89 0.03 82 1007.3
20260506172706 13 260 0.0 6.4 0.00 0.89 0.03 82 1007.3
20260506172603 13 260 1.6 6.4 0.00 0.89 0.03 81 1007.3
20260506172402 14 260 1.6 6.4 0.00 0.89 0.03 81 1007.3
20260506172301 14 260 1.6 6.4 0.00 0.89 0.03 81 1007.3
20260506172202 14 259 1.6 6.4 0.00 0.89 0.03 81 1007.2
20260506172100 14 259 3.2 8.0 0.00 0.89 0.03 81 1007.3
20260506171958 14 259 3.2 8.0 0.00 0.89 0.03 80 1007.2
20260506171857 14 278 3.2 8.0 0.00 0.89 0.03 81 1007.2
20260506171751 14 278 3.2 12.9 0.00 0.89 0.03 81 1007.2
20260506171650 14 278 3.2 12.9 0.00 0.89 0.03 81 1007.2
20260506171547 14 287 4.8 12.9 0.00 0.89 0.03 80 1007.2
20260506171446 14 277 3.2 12.9 0.00 0.89 0.03 80 1007.1
20260506171344 14 272 3.2 12.9 0.00 0.89 0.03 80 1007.1
20260506171243 14 261 4.8 12.9 0.00 0.89 0.03 80 1007.1
20260506171143 14 292 4.8 12.9 0.00 0.89 0.03 80 1007.1
20260506171041 14 289 4.8 12.9 0.00 0.89 0.03 80 1007.0
20260506170939 14 291 4.8 12.9 0.00 0.89 0.03 79 1007.0
20260506170838 14 301 3.2 12.9 0.00 0.89 0.03 79 1006.9
20260506170731 14 324 3.2 11.3 0.00 0.89 0.03 79 1006.9
20260506170630 15 293 4.8 11.3 0.00 0.89 0.03 79 1006.9
20260506170529 15 310 4.8 11.3 0.00 0.89 0.03 79 1006.8
20260506170436 15 279 4.8 11.3 0.00 0.89 0.03 79 1006.9
20260506170358 15 292 6.4 11.3 0.00 0.89 0.03 78 1006.9
20260506170326 15 299 3.2 11.3 0.00 0.89 0.03 78 1006.9
20260506170145 15 323 1.6 11.3 0.00 0.89 0.03 77 1006.9
20260506170114 15 318 1.6 11.3 0.00 0.89 0.03 77 1006.8
20260506165922 15 318 1.6 11.3 0.00 0.89 0.03 77 1006.9
20260506165815 15 318 1.6 11.3 0.00 0.89 0.03 77 1006.8
20260506165714 15 316 1.6 11.3 0.00 0.89 0.03 76 1006.9
20260506165641 15 316 3.2 11.3 0.00 0.89 0.03 75 1006.8
20260506165608 15 316 6.4 11.3 0.00 0.89 0.03 75 1006.8
20260506165410 15 315 4.8 11.3 0.00 0.89 0.03 75 1006.8
20260506165308 15 333 4.8 9.7 0.00 0.89 0.03 75 1006.8
20260506165206 15 307 4.8 11.3 0.00 0.89 0.03 75 1006.9
20260506165104 15 326 3.2 11.3 0.00 0.89 0.03 75 1006.8
20260506165005 15 305 3.2 11.3 0.00 0.89 0.03 74 1006.7
20260506164902 15 319 3.2 11.3 0.00 0.89 0.03 74 1006.7
20260506164801 15 327 3.2 11.3 0.00 0.89 0.03 74 1006.7
20260506164700 15 325 3.2 11.3 0.00 0.89 0.03 73 1006.7
20260506164558 15 325 3.2 11.3 0.00 0.89 0.03 73 1006.8
20260506164459 15 316 4.8 11.3 0.00 0.89 0.03 73 1006.7
20260506164356 15 316 4.8 11.3 0.00 0.89 0.03 72 1006.8
20260506164254 15 318 4.8 11.3 0.00 0.89 0.03 72 1006.8
20260506164154 15 293 3.2 11.3 0.00 0.89 0.03 72 1006.8
20260506164053 15 316 4.8 11.3 0.00 0.89 0.03 72 1006.7
20260506163850 16 303 3.2 6.4 0.00 0.89 0.03 71 1006.7
20260506163749 16 304 3.2 6.4 0.00 0.89 0.03 71 1006.7
20260506163643 16 295 3.2 6.4 0.00 0.89 0.03 71 1006.7
20260506163547 16 303 1.6 6.4 0.00 0.89 0.03 72 1006.7
20260506163445 16 303 3.2 6.4 0.00 0.89 0.03 72 1006.7
20260506163345 16 320 3.2 6.4 0.00 0.89 0.03 71 1006.8
20260506163243 16 319 4.8 6.4 0.00 0.89 0.03 71 1006.8
20260506163141 16 317 3.2 6.4 0.00 0.89 0.03 71 1006.8
20260506163041 16 324 1.6 6.4 0.00 0.89 0.03 71 1006.7
20260506162940 16 307 1.6 6.4 0.00 0.89 0.03 71 1006.7
20260506162843 16 295 4.8 6.4 0.00 0.89 0.03 70 1006.8
20260506162735 16 295 4.8 6.4 0.00 0.89 0.03 70 1006.7
20260506162633 16 293 3.2 6.4 0.00 0.89 0.03 70 1006.8
20260506162532 16 320 1.6 6.4 0.00 0.89 0.03 70 1006.8
20260506162431 16 321 0.0 6.4 0.00 0.89 0.03 70 1006.7
20260506162331 16 320 1.6 8.0 0.00 0.89 0.03 69 1006.7
20260506162228 16 319 3.2 9.7 0.00 0.89 0.03 69 1006.7
20260506162131 16 319 3.2 9.7 0.00 0.89 0.03 69 1006.7
20260506162026 16 320 3.2 9.7 0.00 0.89 0.03 69 1006.7
20260506161924 16 316 3.2 9.7 0.00 0.89 0.03 69 1006.7
20260506161823 16 304 3.2 9.7 0.00 0.89 0.03 69 1006.8
20260506161724 16 318 3.2 9.7 0.00 0.89 0.03 69 1006.7
20260506161624 16 316 1.6 9.7 0.00 0.89 0.03 68 1006.7
20260506161519 16 316 3.2 9.7 0.00 0.89 0.03 69 1006.7
20260506161420 16 297 4.8 9.7 0.00 0.89 0.03 68 1006.7
20260506161318 16 289 3.2 9.7 0.00 0.89 0.03 68 1006.8
20260506161224 16 324 3.2 6.4 0.00 0.89 0.03 68 1006.8
20260506161215 16 313 1.6 6.4 0.00 0.89 0.03 68 1006.8
20260506161127 16 299 3.2 6.4 0.00 0.89 0.03 68 1006.8
20260506160909 16 324 1.6 6.4 0.00 0.89 0.03 68 1006.8
20260506160812 16 324 1.6 6.4 0.00 0.89 0.03 70 1006.8
20260506160711 16 323 3.2 6.4 0.00 0.89 0.03 68 1006.8
20260506160608 16 323 3.2 6.4 0.00 0.89 0.03 68 1006.7
20260506160505 16 322 1.6 6.4 0.00 0.89 0.03 69 1006.8
20260506160403 16 326 0.0 6.4 0.00 0.89 0.03 68 1006.8
20260506160305 16 338 0.0 3.2 0.00 0.89 0.03 68 1006.8
20260506160209 16 349 0.0 3.2 0.00 0.89 0.03 69 1006.8
20260506160105 16 349 0.0 3.2 0.00 0.89 0.03 69 1006.8
20260506160000 16 349 0.0 3.2 0.00 0.89 0.03 69 1006.8
20260506155900 16 349 1.6 3.2 0.00 0.89 0.03 68 1006.8
20260506155804 16 349 1.6 3.2 0.00 0.89 0.03 68 1006.8
20260506155701 16 349 0.0 3.2 0.00 0.89 0.03 69 1006.8
20260506155558 16 347 0.0 3.2 0.00 0.89 0.03 68 1006.8
20260506155456 16 347 0.0 3.2 0.00 0.89 0.03 69 1006.8
20260506155356 16 347 0.0 3.2 0.00 0.89 0.03 68 1006.8
20260506155254 16 347 0.0 4.8 0.00 0.89 0.03 69 1006.9
20260506155152 16 347 0.0 4.8 0.00 0.89 0.03 69 1006.9
20260506155049 16 347 0.0 4.8 0.00 0.89 0.03 69 1006.9
20260506154858 16 347 0.0 4.8 0.00 0.89 0.03 69 1006.9
20260506154823 16 347 0.0 4.8 0.00 0.89 0.03 70 1006.9
20260506154647 16 347 0.0 4.8 0.00 0.89 0.03 70 1006.9
20260506154613 16 347 0.0 4.8 0.00 0.89 0.03 69 1006.9
20260506154543 16 347 1.6 6.4 0.00 0.89 0.03 68 1006.9
20260506154343 16 347 0.0 6.4 0.00 0.89 0.03 68 1006.9
20260506154240 16 347 0.0 6.4 0.00 0.89 0.03 68 1006.9
20260506154138 16 347 0.0 6.4 0.00 0.89 0.03 69 1006.9
20260506154106 16 347 0.0 6.4 0.00 0.89 0.03 68 1006.9
20260506154036 16 347 0.0 6.4 0.00 0.89 0.03 68 1006.9
20260506153831 16 347 0.0 6.4 0.00 0.89 0.03 67 1006.9
20260506153730 16 347 1.6 6.4 0.00 0.89 0.03 68 1006.8
20260506153628 16 347 3.2 6.4 0.00 0.89 0.03 68 1006.9
20260506153523 16 314 3.2 6.4 0.00 0.89 0.03 67 1006.9
20260506153426 16 326 3.2 6.4 0.00 0.89 0.03 68 1006.9
20260506153325 16 322 1.6 6.4 0.00 0.89 0.03 69 1006.9
20260506153221 16 343 1.6 6.4 0.00 0.89 0.03 67 1006.9
20260506153132 17 343 3.2 6.4 0.00 0.89 0.03 68 1006.8
20260506153058 17 29 3.2 6.4 0.00 0.89 0.03 67 1006.9
20260506152919 17 31 1.6 6.4 0.00 0.89 0.03 68 1006.8
20260506152819 17 330 1.6 6.4 0.00 0.89 0.03 68 1006.9
20260506152716 17 329 1.6 6.4 0.00 0.89 0.03 67 1006.8
20260506152626 17 329 3.2 6.4 0.00 0.89 0.03 67 1006.8
20260506152552 17 325 3.2 6.4 0.00 0.89 0.03 68 1006.9
20260506152413 17 325 3.2 6.4 0.00 0.89 0.03 67 1006.9
20260506152312 17 325 3.2 6.4 0.00 0.89 0.03 66 1006.9
20260506152211 17 324 3.2 6.4 0.00 0.89 0.03 66 1006.9
20260506152109 17 324 1.6 6.4 0.00 0.89 0.03 67 1006.8
20260506152002 17 322 1.6 4.8 0.00 0.89 0.03 66 1006.8
20260506151901 17 322 0.0 4.8 0.00 0.89 0.03 66 1006.9
20260506151756 17 322 1.6 4.8 0.00 0.89 0.03 67 1006.9
20260506151659 17 322 1.6 4.8 0.00 0.89 0.03 67 1006.9
20260506151558 17 322 1.6 4.8 0.00 0.89 0.03 66 1006.8
20260506151458 17 314 0.0 4.8 0.00 0.89 0.03 67 1006.9
20260506151356 17 314 0.0 4.8 0.00 0.89 0.03 66 1006.8
20260506151254 17 314 1.6 4.8 0.00 0.89 0.03 66 1006.8
20260506151152 17 314 1.6 4.8 0.00 0.89 0.03 66 1006.8
20260506151050 17 314 1.6 4.8 0.00 0.89 0.03 65 1006.9
20260506150948 17 287 3.2 4.8 0.00 0.89 0.03 64 1006.9
20260506150849 17 287 3.2 4.8 0.00 0.89 0.03 64 1006.9
20260506150748 17 297 1.6 4.8 0.00 0.89 0.03 65 1006.9
20260506150646 17 307 0.0 3.2 0.00 0.89 0.03 65 1006.9
20260506150545 17 211 0.0 3.2 0.00 0.89 0.03 64 1006.8
20260506150444 17 211 0.0 3.2 0.00 0.89 0.03 63 1007.0
20260506150336 17 211 0.0 3.2 0.00 0.89 0.03 63 1006.9
20260506150234 17 211 1.6 3.2 0.00 0.89 0.03 63 1006.9
20260506150151 17 211 1.6 4.8 0.00 0.89 0.03 63 1006.9
20260506150119 17 201 0.0 4.8 0.00 0.89 0.03 63 1006.9
20260506150031 17 202 0.0 4.8 0.00 0.89 0.03 62 1006.9
20260506145831 17 202 0.0 4.8 0.00 0.89 0.03 62 1007.0
20260506145730 17 203 0.0 4.8 0.00 0.89 0.03 64 1007.0
20260506145626 17 203 1.6 6.4 0.00 0.89 0.03 63 1006.9
20260506145523 17 203 1.6 6.4 0.00 0.89 0.03 63 1007.0
20260506145429 17 228 1.6 6.4 0.00 0.89 0.03 64 1007.0
20260506145325 17 249 1.6 6.4 0.00 0.89 0.03 64 1007.0
20260506145224 17 267 1.6 6.4 0.00 0.89 0.03 64 1007.0
20260506145124 17 270 0.0 6.4 0.00 0.89 0.03 64 1007.0
20260506145021 17 270 0.0 6.4 0.00 0.89 0.03 65 1007.0
20260506144818 17 269 3.2 9.7 0.00 0.89 0.03 64 1006.9
20260506144716 17 293 1.6 9.7 0.00 0.89 0.03 65 1006.9
20260506144615 17 318 0.0 9.7 0.00 0.89 0.03 66 1006.9
20260506144514 17 318 1.6 9.7 0.00 0.89 0.03 66 1006.9
20260506144413 17 305 1.6 9.7 0.00 0.89 0.03 65 1007.0
20260506144314 17 305 1.6 9.7 0.00 0.89 0.03 65 1007.0
20260506144212 17 318 1.6 9.7 0.00 0.89 0.03 64 1007.0
20260506144110 17 318 3.2 9.7 0.00 0.89 0.03 63 1007.0
20260506144004 17 318 0.0 9.7 0.00 0.89 0.03 64 1007.0
20260506143906 17 307 0.0 6.4 0.00 0.89 0.03 66 1007.0
20260506143811 17 224 0.0 6.4 0.00 0.89 0.03 65 1007.0
20260506143705 17 224 3.2 6.4 0.00 0.89 0.03 63 1007.0
20260506143604 17 224 4.8 6.4 0.00 0.89 0.03 63 1007.0
20260506143503 17 237 4.8 6.4 0.00 0.89 0.03 62 1007.0
20260506143401 17 257 4.8 6.4 0.00 0.89 0.03 62 1007.0
20260506143300 17 206 3.2 6.4 0.00 0.89 0.03 62 1007.0
20260506143159 17 263 3.2 6.4 0.00 0.89 0.03 63 1007.0
20260506143058 17 268 1.6 6.4 0.00 0.89 0.03 63 1007.0
20260506142957 17 249 3.2 6.4 0.00 0.89 0.03 62 1007.0
20260506142855 17 223 1.6 6.4 0.00 0.89 0.03 62 1007.0
20260506142753 17 253 1.6 4.8 0.00 0.89 0.03 63 1007.0
20260506142647 17 222 1.6 4.8 0.00 0.89 0.03 63 1007.0
20260506142540 17 220 0.0 3.2 0.00 0.89 0.03 62 1007.1
20260506142439 18 220 1.6 3.2 0.00 0.89 0.03 63 1007.0
20260506142337 18 220 1.6 4.8 0.00 0.89 0.03 62 1007.0
20260506142236 18 220 0.0 6.4 0.00 0.89 0.03 62 1007.0
20260506142135 18 220 0.0 8.0 0.00 0.89 0.03 63 1006.9
20260506142035 17 250 0.0 8.0 0.00 0.89 0.03 62 1007.0
20260506141934 17 249 0.0 8.0 0.00 0.89 0.03 64 1007.0
20260506141832 17 249 0.0 8.0 0.00 0.89 0.03 65 1006.9
20260506141731 17 244 0.0 8.0 0.00 0.89 0.03 63 1006.9
20260506141629 17 244 0.0 8.0 0.00 0.89 0.03 62 1007.0
20260506141525 17 252 1.6 8.0 0.00 0.89 0.03 63 1007.0
20260506141425 18 252 3.2 8.0 0.00 0.89 0.03 61 1007.0
20260506141324 18 245 4.8 8.0 0.00 0.89 0.03 62 1007.0
20260506141222 18 241 3.2 8.0 0.00 0.89 0.03 62 1007.0
20260506141118 18 220 3.2 8.0 0.00 0.89 0.03 62 1007.0
20260506141020 17 223 4.8 8.0 0.00 0.89 0.03 61 1007.0
20260506140920 17 243 4.8 8.0 0.00 0.89 0.03 61 1007.1
20260506140818 17 201 4.8 8.0 0.00 0.89 0.03 61 1007.1
20260506140718 17 216 4.8 9.7 0.00 0.89 0.03 62 1007.1
20260506140616 17 191 4.8 9.7 0.00 0.89 0.03 62 1007.1
20260506140515 17 161 3.2 9.7 0.00 0.89 0.03 62 1007.1
20260506140313 17 206 1.6 9.7 0.00 0.89 0.03 62 1007.2
20260506140214 17 136 3.2 9.7 0.00 0.89 0.03 62 1007.2
20260506140136 17 216 0.0 9.7 0.00 0.89 0.03 63 1007.1
20260506140013 17 216 3.2 9.7 0.00 0.89 0.03 62 1007.2
20260506135802 17 216 1.6 9.7 0.00 0.89 0.03 62 1007.2
20260506135659 17 202 1.6 9.7 0.00 0.89 0.03 63 1007.2
20260506135559 17 141 3.2 9.7 0.00 0.89 0.03 63 1007.3
20260506135456 17 140 4.8 9.7 0.00 0.89 0.03 61 1007.3
20260506135354 17 127 4.8 9.7 0.00 0.89 0.03 62 1007.3
20260506135259 17 160 4.8 9.7 0.00 0.89 0.03 62 1007.3
20260506135154 17 170 4.8 9.7 0.00 0.89 0.03 62 1007.4
20260506135053 17 164 3.2 8.0 0.00 0.89 0.03 61 1007.3
20260506134950 17 167 0.0 8.0 0.00 0.89 0.03 62 1007.3
20260506134849 17 157 1.6 8.0 0.00 0.89 0.03 62 1007.3
20260506134749 17 157 3.2 8.0 0.00 0.89 0.03 62 1007.2
20260506134647 17 157 3.2 8.0 0.00 0.89 0.03 61 1007.3
20260506134545 17 172 3.2 8.0 0.00 0.89 0.03 63 1007.3
20260506134444 17 206 4.8 8.0 0.00 0.89 0.03 62 1007.3
20260506134345 17 246 4.8 8.0 0.00 0.89 0.03 62 1007.3
20260506134244 17 203 3.2 8.0 0.00 0.89 0.03 63 1007.3
20260506134143 17 235 0.0 8.0 0.00 0.89 0.03 64 1007.3
20260506134041 17 216 0.0 8.0 0.00 0.89 0.03 64 1007.3
20260506133938 17 216 0.0 8.0 0.00 0.89 0.03 63 1007.3
20260506133836 17 216 0.0 8.0 0.00 0.89 0.03 63 1007.3
20260506133734 17 216 0.0 8.0 0.00 0.89 0.03 64 1007.3
20260506133635 17 216 1.6 8.0 0.00 0.89 0.03 63 1007.4
20260506133534 17 237 3.2 8.0 0.00 0.89 0.03 62 1007.4
20260506133432 17 262 3.2 8.0 0.00 0.89 0.03 62 1007.4
20260506133331 17 216 4.8 12.9 0.00 0.89 0.03 62 1007.4
20260506133229 17 216 3.2 12.9 0.00 0.89 0.03 62 1007.4
20260506133129 17 189 1.6 12.9 0.00 0.89 0.03 63 1007.4
20260506133026 17 192 3.2 12.9 0.00 0.89 0.03 62 1007.4
20260506132925 17 191 4.8 12.9 0.00 0.89 0.03 62 1007.5
20260506132823 17 152 4.8 12.9 0.00 0.89 0.03 62 1007.5
20260506132722 17 156 3.2 12.9 0.00 0.89 0.03 62 1007.5
20260506132621 17 175 4.8 12.9 0.00 0.89 0.03 62 1007.5
20260506132519 17 216 4.8 12.9 0.00 0.89 0.03 61 1007.5
20260506132418 17 170 3.2 12.9 0.00 0.89 0.03 62 1007.6
20260506132316 17 216 4.8 12.9 0.00 0.89 0.03 62 1007.6
20260506132215 17 216 8.0 12.9 0.00 0.89 0.03 62 1007.6
20260506132114 17 154 9.7 12.9 0.00 0.89 0.03 62 1007.5
20260506132014 17 137 8.0 12.9 0.00 0.89 0.03 62 1007.6
20260506131909 17 149 6.4 11.3 0.00 0.89 0.03 63 1007.6
20260506131807 17 127 3.2 12.9 0.00 0.89 0.03 63 1007.6
20260506131705 17 126 3.2 12.9 0.00 0.89 0.03 63 1007.6
20260506131604 17 164 6.4 12.9 0.00 0.89 0.03 63 1007.6
20260506131510 17 179 4.8 12.9 0.00 0.89 0.03 64 1007.6
20260506131406 17 224 3.2 12.9 0.00 0.89 0.03 63 1007.6
20260506131304 17 252 3.2 12.9 0.00 0.89 0.03 62 1007.6
20260506131204 17 206 6.4 12.9 0.00 0.89 0.03 63 1007.6
20260506131102 17 216 8.0 12.9 0.00 0.89 0.03 63 1007.7
20260506130959 17 248 6.4 12.9 0.00 0.89 0.03 63 1007.6
20260506130901 17 262 3.2 12.9 0.00 0.89 0.03 62 1007.6
20260506130757 17 276 3.2 8.0 0.00 0.89 0.03 61 1007.6
20260506130655 17 216 3.2 12.9 0.00 0.89 0.03 62 1007.7
20260506130554 17 175 3.2 12.9 0.00 0.89 0.03 62 1007.7
20260506130453 17 146 3.2 16.1 0.00 0.89 0.03 62 1007.7
20260506130355 17 206 3.2 16.1 0.00 0.89 0.03 62 1007.8
20260506130252 17 211 4.8 16.1 0.00 0.89 0.03 61 1007.7
20260506130148 17 206 6.4 16.1 0.00 0.89 0.03 60 1007.7
20260506130049 17 206 6.4 16.1 0.00 0.89 0.03 61 1007.8
20260506125948 17 216 8.0 16.1 0.00 0.89 0.03 61 1007.8
20260506125745 17 179 9.7 16.1 0.00 0.89 0.03 62 1007.7
20260506125640 17 220 8.0 16.1 0.00 0.89 0.03 61 1007.8
20260506125542 17 216 4.8 16.1 0.00 0.89 0.03 61 1007.8
20260506125440 17 203 6.4 14.5 0.00 0.89 0.03 61 1007.8
20260506125340 17 233 8.0 14.5 0.00 0.89 0.03 61 1007.7
20260506125240 17 211 8.0 14.5 0.00 0.89 0.03 61 1007.8
20260506125137 17 199 8.0 14.5 0.00 0.89 0.03 61 1007.8
20260506125033 17 211 8.0 14.5 0.00 0.89 0.03 61 1007.8
20260506124933 17 241 4.8 14.5 0.00 0.89 0.03 61 1007.8
20260506124833 17 176 4.8 14.5 0.00 0.89 0.03 62 1007.7
20260506124731 17 216 6.4 8.0 0.00 0.89 0.03 62 1007.8
20260506124630 17 222 3.2 8.0 0.00 0.89 0.03 61 1007.7
20260506124522 17 197 3.2 8.0 0.00 0.89 0.03 63 1007.7
20260506124421 17 201 3.2 8.0 0.00 0.89 0.03 62 1007.7
20260506124320 17 206 1.6 8.0 0.00 0.89 0.03 62 1007.7
20260506124219 17 197 3.2 8.0 0.00 0.89 0.03 63 1007.7
20260506124117 17 193 3.2 11.3 0.00 0.89 0.03 63 1007.7
20260506124016 17 216 4.8 11.3 0.00 0.89 0.03 63 1007.7
20260506123915 17 253 3.2 11.3 0.00 0.89 0.03 63 1007.7
20260506123814 17 220 3.2 11.3 0.00 0.89 0.03 63 1007.6
20260506123712 17 293 4.8 11.3 0.00 0.89 0.03 63 1007.6
20260506123613 17 211 4.8 12.9 0.00 0.89 0.03 63 1007.7
20260506123508 17 201 6.4 16.1 0.00 0.89 0.03 63 1007.6
20260506123409 17 127 4.8 16.1 0.00 0.89 0.03 62 1007.6
20260506123304 17 157 3.2 16.1 0.00 0.89 0.03 61 1007.7
20260506123207 17 145 3.2 16.1 0.00 0.89 0.03 63 1007.6
20260506123101 17 153 3.2 16.1 0.00 0.89 0.03 63 1007.7
20260506123006 17 148 3.2 16.1 0.00 0.89 0.03 62 1007.6
20260506122905 17 174 6.4 16.1 0.00 0.89 0.03 63 1007.7
20260506122801 17 145 9.7 16.1 0.00 0.89 0.03 63 1007.6
20260506122700 17 135 8.0 16.1 0.00 0.89 0.03 62 1007.7
20260506122558 17 141 4.8 12.9 0.00 0.89 0.03 62 1007.7
20260506122457 17 149 3.2 14.5 0.00 0.89 0.03 61 1007.7
20260506122359 17 156 4.8 14.5 0.00 0.89 0.03 63 1007.8
20260506122252 17 216 4.8 14.5 0.00 0.89 0.03 63 1007.7
20260506122153 17 238 4.8 14.5 0.00 0.89 0.03 62 1007.8
20260506122052 17 252 4.8 14.5 0.00 0.89 0.03 63 1007.8
20260506121949 17 176 6.4 14.5 0.00 0.89 0.03 63 1007.7
20260506121847 17 275 6.4 14.5 0.00 0.89 0.03 62 1007.8
20260506121747 17 216 6.4 14.5 0.00 0.89 0.03 62 1007.8
20260506121646 17 206 8.0 14.5 0.00 0.89 0.03 63 1007.8
20260506121547 17 222 6.4 14.5 0.00 0.89 0.03 65 1007.8
20260506121446 17 232 4.8 14.5 0.00 0.89 0.03 66 1007.9
20260506121344 17 206 3.2 14.5 0.00 0.89 0.03 66 1007.8
20260506121243 17 206 3.2 14.5 0.00 0.89 0.03 66 1007.8
20260506121142 17 206 4.8 14.5 0.00 0.89 0.03 67 1007.8
20260506121040 17 123 6.4 14.5 0.00 0.89 0.03 67 1007.9
20260506120938 17 280 6.4 14.5 0.00 0.89 0.03 66 1007.9
20260506120839 17 203 8.0 14.5 0.00 0.89 0.03 66 1007.8
20260506120736 17 211 6.4 14.5 0.00 0.89 0.03 65 1007.9
20260506120635 17 220 6.4 12.9 0.00 0.89 0.03 68 1007.8
20260506120533 17 267 6.4 12.9 0.00 0.89 0.03 68 1007.9
20260506120431 16 276 3.2 12.9 0.00 0.89 0.03 68 1007.9
20260506120230 16 206 0.0 9.7 0.00 0.89 0.03 70 1007.9
20260506120128 16 206 0.0 9.7 0.00 0.89 0.03 71 1007.9
20260506120034 16 206 0.0 9.7 0.00 0.89 0.03 70 1007.9
20260506115959 16 206 1.6 12.9 0.00 0.89 0.03 69 1007.9
20260506115820 17 206 3.2 16.1 0.00 0.89 0.03 69 1008.0
20260506115720 17 206 4.8 16.1 0.00 0.89 0.03 70 1008.0
20260506115617 17 187 6.4 16.1 0.00 0.89 0.03 69 1008.0
20260506115516 17 164 6.4 16.1 0.00 0.89 0.03 68 1008.0
20260506115415 17 155 6.4 16.1 0.00 0.89 0.03 68 1008.0
20260506115314 17 200 6.4 16.1 0.00 0.89 0.03 68 1008.0
20260506115213 17 220 6.4 16.1 0.00 0.89 0.03 68 1008.0
20260506115113 17 231 8.0 16.1 0.00 0.89 0.03 68 1008.0
20260506115024 17 249 8.0 16.1 0.00 0.89 0.03 69 1008.0
20260506114951 17 188 6.4 16.1 0.00 0.89 0.03 68 1008.0
20260506114807 17 216 4.8 14.5 0.00 0.89 0.03 67 1008.0
20260506114707 17 224 1.6 14.5 0.00 0.89 0.03 68 1008.0
20260506114605 17 134 3.2 14.5 0.00 0.89 0.03 69 1008.0
20260506114503 17 216 6.4 16.1 0.00 0.89 0.03 69 1008.1
20260506114402 17 216 6.4 17.7 0.00 0.89 0.03 70 1008.1
20260506114301 17 222 4.8 17.7 0.00 0.89 0.03 70 1008.1
20260506114200 17 191 4.8 17.7 0.00 0.89 0.03 71 1008.1
20260506114058 17 166 4.8 17.7 0.00 0.89 0.03 72 1008.0
20260506113957 16 178 6.4 17.7 0.00 0.89 0.03 71 1008.0
20260506113856 16 122 9.7 17.7 0.00 0.89 0.03 71 1008.1
20260506113754 16 144 11.3 17.7 0.00 0.89 0.03 71 1008.1
20260506113653 16 167 14.5 17.7 0.00 0.89 0.03 71 1008.1
20260506113552 17 189 11.3 17.7 0.00 0.89 0.03 71 1008.0
20260506113450 16 168 8.0 17.7 0.00 0.89 0.03 71 1008.0
20260506113349 16 119 6.4 16.1 0.00 0.89 0.03 71 1008.0
20260506113248 16 139 6.4 12.9 0.00 0.89 0.03 70 1008.1
20260506113147 16 176 6.4 12.9 0.00 0.89 0.03 71 1008.1
20260506113045 16 175 4.8 12.9 0.00 0.89 0.03 71 1008.2
20260506112944 16 140 3.2 12.9 0.00 0.89 0.03 71 1008.2
20260506112842 16 225 3.2 12.9 0.00 0.89 0.03 72 1008.2
20260506112741 16 206 3.2 12.9 0.00 0.89 0.03 71 1008.2
20260506112640 16 190 4.8 12.9 0.00 0.89 0.03 72 1008.2
20260506112539 16 159 6.4 12.9 0.00 0.89 0.03 71 1008.2
20260506112437 16 216 6.4 12.9 0.00 0.89 0.03 71 1008.2
20260506112329 16 230 4.8 11.3 0.00 0.89 0.03 72 1008.2
20260506112228 16 220 4.8 11.3 0.00 0.89 0.03 72 1008.1
20260506112129 16 257 4.8 14.5 0.00 0.89 0.03 72 1008.2
20260506112024 16 222 4.8 14.5 0.00 0.89 0.03 72 1008.2
20260506111927 16 266 6.4 14.5 0.00 0.89 0.03 72 1008.2
20260506111824 16 251 6.4 14.5 0.00 0.89 0.03 71 1008.2
20260506111727 16 243 6.4 14.5 0.00 0.89 0.03 71 1008.2
20260506111621 16 252 6.4 14.5 0.00 0.89 0.03 71 1008.2
20260506111528 16 233 6.4 14.5 0.00 0.89 0.03 71 1008.2
20260506111454 16 240 6.4 14.5 0.00 0.89 0.03 71 1008.2
20260506111417 16 216 8.0 14.5 0.00 0.89 0.03 71 1008.2
20260506111221 16 222 6.4 14.5 0.00 0.89 0.03 71 1008.3
20260506111112 17 271 4.8 14.5 0.00 0.89 0.03 71 1008.3
20260506111038 17 243 4.8 14.5 0.00 0.89 0.03 71 1008.2
20260506111004 17 178 4.8 14.5 0.00 0.89 0.03 72 1008.2
20260506110808 17 195 3.2 12.9 0.00 0.89 0.03 71 1008.2
20260506110711 16 216 4.8 12.9 0.00 0.89 0.03 72 1008.2
20260506110604 16 211 8.0 12.9 0.00 0.89 0.03 71 1008.2
20260506110504 16 171 8.0 12.9 0.00 0.89 0.03 70 1008.2
20260506110402 16 156 4.8 14.5 0.00 0.89 0.03 70 1008.2
20260506110300 16 161 3.2 19.3 0.00 0.89 0.03 72 1008.2
20260506110200 16 133 3.2 19.3 0.00 0.89 0.03 72 1008.2
20260506105956 16 216 4.8 19.3 0.00 0.89 0.03 72 1008.2
20260506105859 16 182 6.4 19.3 0.00 0.89 0.03 73 1008.3
20260506105757 16 169 6.4 19.3 0.00 0.89 0.03 71 1008.2
20260506105655 16 166 6.4 19.3 0.00 0.89 0.03 72 1008.2
20260506105555 16 155 6.4 19.3 0.00 0.89 0.03 72 1008.2
20260506105454 16 203 4.8 19.3 0.00 0.89 0.03 72 1008.3
20260506105352 16 175 3.2 14.5 0.00 0.89 0.03 73 1008.3
20260506105251 16 152 8.0 14.5 0.00 0.89 0.03 72 1008.2
20260506105150 16 147 8.0 14.5 0.00 0.89 0.03 72 1008.3
20260506105047 16 125 6.4 14.5 0.00 0.89 0.03 72 1008.3
20260506104946 16 131 6.4 14.5 0.00 0.89 0.03 72 1008.3
20260506104846 16 206 6.4 14.5 0.00 0.89 0.03 72 1008.3
20260506104741 16 176 6.4 12.9 0.00 0.89 0.03 72 1008.3
20260506104642 16 211 3.2 12.9 0.00 0.89 0.03 72 1008.3
20260506104539 16 151 4.8 12.9 0.00 0.89 0.03 73 1008.3
20260506104437 16 184 6.4 12.9 0.00 0.89 0.03 72 1008.3
20260506104335 16 149 8.0 12.9 0.00 0.89 0.03 72 1008.3
20260506104233 16 233 6.4 14.5 0.00 0.89 0.03 72 1008.4
20260506104132 16 201 3.2 14.5 0.00 0.89 0.03 74 1008.4
20260506104031 16 261 4.8 14.5 0.00 0.89 0.03 74 1008.4
20260506103930 16 133 6.4 14.5 0.00 0.89 0.03 74 1008.4
20260506103834 16 147 6.4 14.5 0.00 0.89 0.03 73 1008.4
20260506103732 16 154 6.4 14.5 0.00 0.89 0.03 74 1008.4
20260506103631 16 190 4.8 14.5 0.00 0.89 0.03 74 1008.4
20260506103531 16 187 6.4 14.5 0.00 0.89 0.03 74 1008.4
20260506103428 16 143 6.4 14.5 0.00 0.89 0.03 74 1008.4
20260506103328 16 189 6.4 14.5 0.00 0.89 0.03 74 1008.4
20260506103226 16 167 4.8 12.9 0.00 0.89 0.03 74 1008.4
20260506103124 15 228 6.4 12.9 0.00 0.89 0.03 74 1008.4
20260506103022 15 152 4.8 12.9 0.00 0.89 0.03 74 1008.4
20260506102921 15 155 6.4 14.5 0.00 0.89 0.03 74 1008.4
20260506102821 15 216 8.0 14.5 0.00 0.89 0.03 74 1008.4
20260506102720 16 157 4.8 14.5 0.00 0.89 0.03 74 1008.4
20260506102614 16 157 3.2 14.5 0.00 0.89 0.03 74 1008.5
20260506102512 16 195 3.2 14.5 0.00 0.89 0.03 75 1008.3
20260506102411 16 206 4.8 14.5 0.00 0.89 0.03 75 1008.4
20260506102315 15 203 6.4 14.5 0.00 0.89 0.03 75 1008.4
20260506102214 15 182 4.8 14.5 0.00 0.89 0.03 75 1008.4
20260506102111 15 160 6.4 14.5 0.00 0.89 0.03 76 1008.4
20260506102010 15 182 4.8 14.5 0.00 0.89 0.03 76 1008.4
20260506101909 15 198 6.4 14.5 0.00 0.89 0.03 76 1008.4
20260506101811 15 166 8.0 14.5 0.00 0.89 0.03 77 1008.3
20260506101706 15 191 8.0 14.5 0.00 0.89 0.03 76 1008.4
20260506101606 15 131 4.8 14.5 0.00 0.89 0.03 77 1008.4
20260506101506 15 178 6.4 9.7 0.00 0.89 0.03 77 1008.4
20260506101358 15 182 4.8 9.7 0.00 0.89 0.03 77 1008.4
20260506101159 15 144 4.8 12.9 0.00 0.89 0.03 76 1008.4
20260506101058 15 128 3.2 12.9 0.00 0.89 0.03 76 1008.3
20260506100958 15 160 3.2 12.9 0.00 0.89 0.03 77 1008.4
20260506100855 15 171 4.8 12.9 0.00 0.89 0.03 76 1008.4
20260506100754 15 216 4.8 12.9 0.00 0.89 0.03 75 1008.4
20260506100655 15 206 1.6 12.9 0.00 0.89 0.03 76 1008.4
20260506100552 15 149 0.0 12.9 0.00 0.89 0.03 77 1008.3
20260506100450 15 216 3.2 12.9 0.00 0.89 0.03 77 1008.4
20260506100350 15 216 3.2 12.9 0.00 0.89 0.03 77 1008.4
20260506100248 15 216 3.2 12.9 0.00 0.89 0.03 77 1008.4
20260506100155 15 144 3.2 11.3 0.00 0.89 0.03 76 1008.4
20260506100046 15 203 3.2 14.5 0.00 0.89 0.03 76 1008.4
20260506095954 15 203 4.8 14.5 0.00 0.89 0.03 76 1008.4
20260506095921 15 201 6.4 14.5 0.00 0.89 0.03 76 1008.4
20260506095744 15 201 4.8 14.5 0.00 0.89 0.03 75 1008.3
20260506095642 15 203 3.2 14.5 0.00 0.89 0.03 75 1008.4
20260506095541 15 211 6.4 14.5 0.00 0.89 0.03 75 1008.4
20260506095439 15 181 4.8 14.5 0.00 0.89 0.03 75 1008.4
20260506095338 15 174 3.2 14.5 0.00 0.89 0.03 76 1008.4
20260506095237 15 161 8.0 14.5 0.00 0.89 0.03 76 1008.4
20260506095136 15 159 8.0 14.5 0.00 0.89 0.03 75 1008.4
20260506095034 15 166 4.8 14.5 0.00 0.89 0.03 76 1008.4
20260506094933 15 147 3.2 12.9 0.00 0.89 0.03 75 1008.3
20260506094826 15 143 4.8 14.5 0.00 0.89 0.03 75 1008.3
20260506094724 15 172 4.8 14.5 0.00 0.89 0.03 75 1008.3
20260506094622 15 203 3.2 14.5 0.00 0.89 0.03 75 1008.4
20260506094522 15 211 4.8 14.5 0.00 0.89 0.03 76 1008.3
20260506094420 15 202 6.4 14.5 0.00 0.89 0.03 75 1008.4
20260506094319 15 216 6.4 14.5 0.00 0.89 0.03 75 1008.3
20260506094218 15 211 6.4 14.5 0.00 0.89 0.03 75 1008.4
20260506094116 15 233 4.8 14.5 0.00 0.89 0.03 75 1008.3
20260506094016 15 193 6.4 14.5 0.00 0.89 0.03 75 1008.4
20260506093914 15 171 8.0 14.5 0.00 0.89 0.03 75 1008.4
20260506093813 15 178 8.0 14.5 0.00 0.89 0.03 75 1008.4
20260506093712 15 278 8.0 16.1 0.00 0.89 0.03 74 1008.3
20260506093611 15 226 6.4 16.1 0.00 0.89 0.03 74 1008.4
20260506093509 15 211 6.4 16.1 0.00 0.89 0.03 74 1008.3
20260506093408 15 235 6.4 16.1 0.00 0.89 0.03 74 1008.3
20260506093306 15 187 6.4 16.1 0.00 0.89 0.03 75 1008.3
20260506093205 15 194 8.0 16.1 0.00 0.89 0.03 74 1008.3
20260506093104 15 172 8.0 16.1 0.00 0.89 0.03 74 1008.3
20260506093004 15 180 9.7 16.1 0.00 0.89 0.03 74 1008.3
20260506092902 15 203 8.0 16.1 0.00 0.89 0.03 74 1008.3
20260506092800 15 235 4.8 12.9 0.00 0.89 0.03 74 1008.3
20260506092659 15 145 3.2 12.9 0.00 0.89 0.03 75 1008.3
20260506092557 15 254 4.8 12.9 0.00 0.89 0.03 76 1008.3
20260506092456 15 271 6.4 12.9 0.00 0.89 0.03 76 1008.2
20260506092355 15 233 3.2 12.9 0.00 0.89 0.03 77 1008.3
20260506092151 15 248 1.6 8.0 0.00 0.89 0.03 77 1008.3
20260506092049 15 202 4.8 8.0 0.00 0.89 0.03 77 1008.3
20260506091946 15 202 4.8 8.0 0.00 0.89 0.03 77 1008.3
20260506091845 15 250 3.2 8.0 0.00 0.89 0.03 77 1008.4
20260506091642 14 145 1.6 8.0 0.00 0.89 0.03 78 1008.2
20260506091541 14 143 1.6 11.3 0.00 0.89 0.03 78 1008.3
20260506091442 14 149 1.6 11.3 0.00 0.89 0.03 78 1008.3
20260506091341 14 196 1.6 11.3 0.00 0.89 0.03 78 1008.3
20260506091237 14 233 3.2 11.3 0.00 0.89 0.03 78 1008.3
20260506091138 14 233 3.2 11.3 0.00 0.89 0.03 78 1008.2
20260506091035 14 201 3.2 11.3 0.00 0.89 0.03 78 1008.2
20260506090934 14 154 3.2 11.3 0.00 0.89 0.03 77 1008.3
20260506090834 14 182 6.4 11.3 0.00 0.89 0.03 77 1008.3
20260506090733 14 211 6.4 11.3 0.00 0.89 0.03 77 1008.3
20260506090633 14 220 3.2 11.3 0.00 0.89 0.03 78 1008.3
20260506090527 14 176 3.2 6.4 0.00 0.89 0.03 78 1008.3
20260506090426 14 216 3.2 6.4 0.00 0.89 0.03 78 1008.3
20260506090330 14 216 3.2 6.4 0.00 0.89 0.03 78 1008.3
20260506090226 14 201 3.2 6.4 0.00 0.89 0.03 79 1008.3
20260506090135 14 127 4.8 6.4 0.00 0.89 0.03 79 1008.2
20260506090030 14 145 3.2 6.4 0.00 0.89 0.03 79 1008.3
20260506085920 14 152 1.6 6.4 0.00 0.89 0.03 79 1008.2
20260506085823 14 155 1.6 6.4 0.00 0.89 0.03 78 1008.3
20260506085721 14 220 1.6 6.4 0.00 0.89 0.03 79 1008.3
20260506085616 14 220 3.2 6.4 0.00 0.89 0.03 78 1008.3
20260506085515 14 226 3.2 6.4 0.00 0.89 0.03 78 1008.3
20260506085413 14 216 1.6 6.4 0.00 0.89 0.03 80 1008.3
20260506085311 14 206 1.6 6.4 0.00 0.89 0.03 80 1008.3
20260506085212 14 206 1.6 6.4 0.00 0.89 0.03 79 1008.3
20260506085108 13 206 0.0 6.4 0.00 0.89 0.03 79 1008.3
20260506085008 13 206 0.0 6.4 0.00 0.89 0.03 79 1008.3
20260506084908 13 206 1.6 6.4 0.00 0.89 0.03 80 1008.3
20260506084805 13 201 3.2 6.4 0.00 0.89 0.03 80 1008.3
20260506084705 13 201 3.2 6.4 0.00 0.89 0.03 80 1008.3
20260506084603 13 201 1.6 6.4 0.00 0.89 0.03 80 1008.3
20260506084502 13 170 1.6 6.4 0.00 0.89 0.03 80 1008.3
20260506084401 13 141 3.2 6.4 0.00 0.89 0.03 80 1008.3
20260506084300 13 141 1.6 6.4 0.00 0.89 0.03 81 1008.3
20260506084159 13 163 1.6 6.4 0.00 0.89 0.03 81 1008.4
20260506084055 13 148 3.2 6.4 0.00 0.89 0.03 81 1008.3
20260506083955 13 162 3.2 6.4 0.00 0.89 0.03 81 1008.4
20260506083921 13 148 4.8 6.4 0.00 0.89 0.03 81 1008.3
20260506083849 13 216 4.8 12.9 0.00 0.89 0.03 80 1008.3
20260506083650 13 246 4.8 12.9 0.00 0.89 0.03 81 1008.4
20260506083549 13 216 4.8 12.9 0.00 0.89 0.03 81 1008.3
20260506083447 13 161 3.2 12.9 0.00 0.89 0.03 81 1008.3
20260506083347 13 211 4.8 12.9 0.00 0.89 0.03 82 1008.3
20260506083245 13 211 4.8 12.9 0.00 0.89 0.03 82 1008.2
20260506083142 13 216 3.2 12.9 0.00 0.89 0.03 82 1008.3
20260506083043 13 206 6.4 12.9 0.00 0.89 0.03 82 1008.4
20260506082941 13 188 6.4 12.9 0.00 0.89 0.03 81 1008.4
20260506082837 13 180 4.8 12.9 0.00 0.89 0.03 81 1008.4
20260506082638 13 185 3.2 9.7 0.00 0.89 0.03 82 1008.4
20260506082536 13 146 3.2 9.7 0.00 0.89 0.03 82 1008.3
20260506082435 13 184 3.2 9.7 0.00 0.89 0.03 82 1008.3
20260506082331 13 175 1.6 12.9 0.00 0.89 0.03 82 1008.3
20260506082131 13 206 4.8 12.9 0.00 0.89 0.03 82 1008.3